Time,TemperatureF,DewpointF,PressureIn,WindDirection,WindDirectionDegrees,WindSpeedMPH,WindSpeedGustMPH,Humidity,HourlyPrecipIn,Conditions,Clouds,dailyrainin,SoftwareType,DateUTC
2013-03-01 00:00:00,41.4,13.7,30.41,ESE,112,2.9,2.9,32,0.00,,,0.00,VWS V14.00,2013-03-01 08:00:00,
2013-03-01 00:01:00,41.5,13.9,30.41,East,90,3.1,3.1,32,0.00,,,0.00,VWS V14.00,2013-03-01 08:01:00,
2013-03-01 00:02:00,41.5,13.9,30.41,East,90,2.5,2.5,32,0.00,,,0.00,VWS V14.00,2013-03-01 08:02:00,
2013-03-01 00:03:00,41.2,13.6,30.41,ESE,112,3.1,3.1,32,0.00,,,0.00,VWS V14.00,2013-03-01 08:03:00,
2013-03-01 00:04:00,41.2,13.6,30.41,East,90,2.5,3.1,32,0.00,,,0.00,VWS V14.00,2013-03-01 08:04:00,
2013-03-01 00:05:00,41.2,13.6,30.41,ESE,112,7.6,7.6,32,0.00,,,0.00,VWS V14.00,2013-03-01 08:05:00,
2013-03-01 08:47:00,41.2,13.6,30.41,ESE,112,7.6,7.6,32,0.00,,,0.00,VWS V14.00,2013-03-01 16:47:00,
2013-03-01 08:48:00,41.2,13.6,30.41,SE,135,4.9,7.6,32,0.00,,,0.00,VWS V14.00,2013-03-01 16:48:00,
2013-03-01 08:49:00,41.2,13.6,30.41,SE,135,4.9,4.9,32,0.00,,,0.00,VWS V14.00,2013-03-01 16:49:00,
2013-03-01 08:50:00,54.0,19.9,30.41,SE,135,3.1,4.9,26,0.00,,,0.00,VWS V14.00,2013-03-01 16:50:00,
2013-03-01 08:51:00,54.1,20.9,30.41,SSE,158,3.8,3.8,27,0.00,,,0.00,VWS V14.00,2013-03-01 16:51:00,
2013-03-01 08:52:00,54.1,20.9,30.41,NNW,338,2.0,2.9,27,0.00,,,0.00,VWS V14.00,2013-03-01 16:52:00,
2013-03-01 08:53:00,54.1,20.9,30.41,NNW,338,2.0,2.9,27,0.00,,,0.00,VWS V14.00,2013-03-01 16:53:00,
2013-03-01 08:54:00,54.1,20.9,30.41,East,90,7.8,7.8,27,0.00,,,0.00,VWS V14.00,2013-03-01 16:54:00,
2013-03-01 08:55:00,54.1,20.9,30.41,East,90,8.1,8.1,27,0.00,,,0.00,VWS V14.00,2013-03-01 16:55:00,
2013-03-01 08:56:00,54.1,20.9,30.41,NE,45,7.4,8.1,27,0.00,,,0.00,VWS V14.00,2013-03-01 16:56:00,
2013-03-01 08:57:00,54.3,20.2,30.41,East,90,6.0,6.0,26,0.00,,,0.00,VWS V14.00,2013-03-01 16:57:00,
2013-03-01 08:58:00,54.3,20.2,30.41,East,90,3.1,6.0,26,0.00,,,0.00,VWS V14.00,2013-03-01 16:58:00,
2013-03-01 08:59:00,54.3,20.2,30.41,East,90,2.9,3.1,26,0.00,,,0.00,VWS V14.00,2013-03-01 16:59:00,
2013-03-01 09:00:00,54.5,20.3,30.41,SE,135,4.3,4.3,26,0.00,,,0.00,VWS V14.00,2013-03-01 17:00:00,
2013-03-01 09:01:00,54.5,20.3,30.41,SSE,158,5.6,5.6,26,0.00,,,0.00,VWS V14.00,2013-03-01 17:01:00,
2013-03-01 09:02:00,54.3,20.2,30.41,SSW,202,2.9,2.9,26,0.00,,,0.00,VWS V14.00,2013-03-01 17:02:00,
2013-03-01 09:03:00,54.3,20.2,30.41,ESE,112,3.1,3.1,26,0.00,,,0.00,VWS V14.00,2013-03-01 17:03:00,
2013-03-01 09:04:00,54.3,20.2,30.41,NE,45,2.9,3.1,26,0.00,,,0.00,VWS V14.00,2013-03-01 17:04:00,
2013-03-01 09:05:00,54.5,20.3,30.41,SE,135,1.3,2.9,26,0.00,,,0.00,VWS V14.00,2013-03-01 17:05:00,
2013-03-01 09:06:00,54.5,20.3,30.41,SE,135,3.8,3.8,26,0.00,,,0.00,VWS V14.00,2013-03-01 17:06:00,
2013-03-01 09:07:00,54.5,20.3,30.41,SSE,158,2.9,3.6,26,0.00,,,0.00,VWS V14.00,2013-03-01 17:07:00,
2013-03-01 09:08:00,54.5,20.3,30.41,SSE,158,2.9,3.6,26,0.00,,,0.00,VWS V14.00,2013-03-01 17:08:00,
2013-03-01 09:09:00,54.5,20.3,30.41,East,90,2.9,2.9,26,0.00,,,0.00,VWS V14.00,2013-03-01 17:09:00,
2013-03-01 09:10:00,54.5,20.3,30.41,NNE,22,3.1,3.1,26,0.00,,,0.00,VWS V14.00,2013-03-01 17:10:00,
2013-03-01 09:11:00,54.7,20.5,30.41,SE,135,4.7,4.7,26,0.00,,,0.00,VWS V14.00,2013-03-01 17:11:00,
2013-03-01 09:12:00,54.7,20.5,30.41,ESE,112,2.5,7.6,26,0.00,,,0.00,VWS V14.00,2013-03-01 17:12:00,
2013-03-01 09:13:00,54.7,20.5,30.41,East,90,4.7,7.6,26,0.00,,,0.00,VWS V14.00,2013-03-01 17:13:00,
2013-03-01 09:14:00,55.0,20.8,30.41,East,90,3.6,4.7,26,0.00,,,0.00,VWS V14.00,2013-03-01 17:14:00,
2013-03-01 09:15:00,55.0,20.8,30.41,ESE,112,3.4,3.6,26,0.00,,,0.00,VWS V14.00,2013-03-01 17:15:00,
2013-03-01 09:16:00,55.0,20.8,30.41,ESE,112,3.4,3.4,26,0.00,,,0.00,VWS V14.00,2013-03-01 17:16:00,
2013-03-01 09:17:00,55.0,20.8,30.41,SE,135,1.6,1.6,26,0.00,,,0.00,VWS V14.00,2013-03-01 17:17:00,
2013-03-01 09:18:00,55.0,20.8,30.41,East,90,4.3,4.3,26,0.00,,,0.00,VWS V14.00,2013-03-01 17:18:00,
2013-03-01 09:19:00,55.0,20.8,30.41,SE,135,4.0,4.3,26,0.00,,,0.00,VWS V14.00,2013-03-01 17:19:00,
2013-03-01 09:20:00,55.2,21.0,30.41,East,90,8.5,8.5,26,0.00,,,0.00,VWS V14.00,2013-03-01 17:20:00,
2013-03-01 09:21:00,55.4,21.1,30.41,East,90,5.4,8.5,26,0.00,,,0.00,VWS V14.00,2013-03-01 17:21:00,
2013-03-01 09:22:00,55.4,21.1,30.41,SE,135,4.9,4.9,26,0.00,,,0.00,VWS V14.00,2013-03-01 17:22:00,
2013-03-01 09:23:00,55.4,21.1,30.41,SE,135,4.9,4.9,26,0.00,,,0.00,VWS V14.00,2013-03-01 17:23:00,
2013-03-01 09:24:00,55.4,21.1,30.41,ESE,112,2.9,4.9,26,0.00,,,0.00,VWS V14.00,2013-03-01 17:24:00,
2013-03-01 09:25:00,55.6,21.3,30.41,SE,135,2.5,2.9,26,0.00,,,0.00,VWS V14.00,2013-03-01 17:25:00,
2013-03-01 09:26:00,55.6,21.3,30.41,East,90,3.6,3.6,26,0.00,,,0.00,VWS V14.00,2013-03-01 17:26:00,
2013-03-01 09:27:00,55.8,21.4,30.41,East,90,2.0,2.0,26,0.00,,,0.00,VWS V14.00,2013-03-01 17:27:00,
2013-03-01 09:28:00,55.8,21.4,30.41,ENE,68,2.5,2.5,26,0.00,,,0.00,VWS V14.00,2013-03-01 17:28:00,
2013-03-01 09:29:00,55.8,21.4,30.41,ENE,68,9.6,9.6,26,0.00,,,0.00,VWS V14.00,2013-03-01 17:29:00,
2013-03-01 09:30:00,55.8,21.4,30.41,ENE,68,9.6,9.6,26,0.00,,,0.00,VWS V14.00,2013-03-01 17:30:00,
2013-03-01 09:31:00,55.8,21.4,30.41,ESE,112,2.7,9.6,26,0.00,,,0.00,VWS V14.00,2013-03-01 17:31:00,
2013-03-01 09:32:00,55.9,21.6,30.41,East,90,2.9,2.9,26,0.00,,,0.00,VWS V14.00,2013-03-01 17:32:00,
2013-03-01 09:33:00,55.9,21.6,30.41,East,90,2.9,2.9,26,0.00,,,0.00,VWS V14.00,2013-03-01 17:33:00,
2013-03-01 09:34:00,55.9,21.6,30.41,East,90,2.0,2.9,26,0.00,,,0.00,VWS V14.00,2013-03-01 17:34:00,
2013-03-01 09:35:00,56.1,21.7,30.41,SE,135,3.4,3.4,26,0.00,,,0.00,VWS V14.00,2013-03-01 17:35:00,
2013-03-01 09:36:00,56.1,21.7,30.41,ENE,68,2.9,3.4,26,0.00,,,0.00,VWS V14.00,2013-03-01 17:36:00,
2013-03-01 09:37:00,56.1,21.7,30.41,ESE,112,3.6,3.6,26,0.00,,,0.00,VWS V14.00,2013-03-01 17:37:00,
2013-03-01 09:38:00,56.1,21.7,30.41,ESE,112,3.6,3.6,26,0.00,,,0.00,VWS V14.00,2013-03-01 17:38:00,
2013-03-01 09:39:00,56.3,21.9,30.41,East,90,2.9,3.6,26,0.00,,,0.00,VWS V14.00,2013-03-01 17:39:00,
2013-03-01 09:40:00,56.3,21.9,30.41,NNW,338,4.3,4.3,26,0.00,,,0.00,VWS V14.00,2013-03-01 17:40:00,
2013-03-01 09:41:00,56.3,21.9,30.41,NNE,22,6.0,6.0,26,0.00,,,0.00,VWS V14.00,2013-03-01 17:41:00,
2013-03-01 09:42:00,56.3,21.9,30.41,South,180,2.7,3.4,26,0.00,,,0.00,VWS V14.00,2013-03-01 17:42:00,
2013-03-01 09:43:00,56.3,21.9,30.41,NNE,22,2.0,3.4,26,0.00,,,0.00,VWS V14.00,2013-03-01 17:43:00,
2013-03-01 09:44:00,56.3,21.0,30.41,East,90,4.3,4.3,25,0.00,,,0.00,VWS V14.00,2013-03-01 17:44:00,
2013-03-01 09:45:00,56.3,21.0,30.41,East,90,4.0,4.3,25,0.00,,,0.00,VWS V14.00,2013-03-01 17:45:00,
2013-03-01 09:46:00,56.5,22.0,30.41,SE,135,4.7,4.7,26,0.00,,,0.00,VWS V14.00,2013-03-01 17:46:00,
2013-03-01 09:47:00,56.5,22.0,30.41,NE,45,8.1,8.1,26,0.00,,,0.00,VWS V14.00,2013-03-01 17:47:00,
2013-03-01 09:48:00,56.5,22.0,30.41,NE,45,8.1,8.1,26,0.00,,,0.00,VWS V14.00,2013-03-01 17:48:00,
2013-03-01 09:49:00,56.5,22.0,30.41,East,90,3.1,8.1,26,0.00,,,0.00,VWS V14.00,2013-03-01 17:49:00,
2013-03-01 09:50:00,56.7,21.3,30.41,SE,135,2.7,3.1,25,0.00,,,0.00,VWS V14.00,2013-03-01 17:50:00,
2013-03-01 09:51:00,56.7,21.3,30.41,East,90,3.1,3.1,25,0.00,,,0.00,VWS V14.00,2013-03-01 17:51:00,
2013-03-01 09:52:00,56.7,21.3,30.41,ESE,112,2.7,6.0,25,0.00,,,0.00,VWS V14.00,2013-03-01 17:52:00,
2013-03-01 09:53:00,56.7,21.3,30.41,ESE,112,2.7,6.0,25,0.00,,,0.00,VWS V14.00,2013-03-01 17:53:00,
2013-03-01 09:54:00,56.7,21.3,30.41,East,90,6.0,6.0,25,0.00,,,0.00,VWS V14.00,2013-03-01 17:54:00,
2013-03-01 09:55:00,56.8,21.4,30.41,ESE,112,5.6,6.0,25,0.00,,,0.00,VWS V14.00,2013-03-01 17:55:00,
2013-03-01 09:56:00,56.8,21.4,30.41,ESE,112,6.0,6.0,25,0.00,,,0.00,VWS V14.00,2013-03-01 17:56:00,
2013-03-01 09:57:00,56.8,21.4,30.41,East,90,6.9,6.9,25,0.00,,,0.00,VWS V14.00,2013-03-01 17:57:00,
2013-03-01 09:58:00,56.8,21.4,30.41,East,90,6.9,6.9,25,0.00,,,0.00,VWS V14.00,2013-03-01 17:58:00,
2013-03-01 09:59:00,56.8,21.4,30.41,SE,135,4.3,6.3,25,0.00,,,0.00,VWS V14.00,2013-03-01 17:59:00,
2013-03-01 10:00:00,57.0,21.6,30.41,ESE,112,10.1,10.1,25,0.00,,,0.00,VWS V14.00,2013-03-01 18:00:00,
2013-03-01 10:01:00,57.0,21.6,30.41,ESE,112,5.8,10.1,25,0.00,,,0.00,VWS V14.00,2013-03-01 18:01:00,
2013-03-01 10:02:00,57.0,21.6,30.41,East,90,5.8,5.8,25,0.00,,,0.00,VWS V14.00,2013-03-01 18:02:00,
2013-03-01 10:03:00,57.0,21.6,30.41,East,90,3.6,5.8,25,0.00,,,0.00,VWS V14.00,2013-03-01 18:03:00,
2013-03-01 10:04:00,57.2,21.7,30.41,ENE,68,5.8,5.8,25,0.00,,,0.00,VWS V14.00,2013-03-01 18:04:00,
2013-03-01 10:05:00,57.4,21.9,30.41,SE,135,4.3,5.8,25,0.00,,,0.00,VWS V14.00,2013-03-01 18:05:00,
2013-03-01 10:06:00,57.4,21.9,30.41,East,90,5.6,5.6,25,0.00,,,0.00,VWS V14.00,2013-03-01 18:06:00,
2013-03-01 10:07:00,57.6,22.0,30.41,ESE,112,5.6,5.6,25,0.00,,,0.00,VWS V14.00,2013-03-01 18:07:00,
2013-03-01 10:08:00,57.6,22.0,30.41,ENE,68,3.8,5.6,25,0.00,,,0.00,VWS V14.00,2013-03-01 18:08:00,
2013-03-01 10:09:00,57.6,22.0,30.41,East,90,4.3,4.3,25,0.00,,,0.00,VWS V14.00,2013-03-01 18:09:00,
2013-03-01 10:10:00,57.6,22.0,30.41,ESE,112,2.7,4.3,25,0.00,,,0.00,VWS V14.00,2013-03-01 18:10:00,
2013-03-01 10:11:00,57.6,22.0,30.41,SE,135,3.8,3.8,25,0.00,,,0.00,VWS V14.00,2013-03-01 18:11:00,
2013-03-01 10:12:00,57.6,22.0,30.41,SE,135,3.8,3.8,25,0.00,,,0.00,VWS V14.00,2013-03-01 18:12:00,
2013-03-01 10:13:00,57.4,21.9,30.41,ENE,68,2.7,3.8,25,0.00,,,0.00,VWS V14.00,2013-03-01 18:13:00,
2013-03-01 10:14:00,57.6,22.0,30.41,ESE,112,5.4,5.4,25,0.00,,,0.00,VWS V14.00,2013-03-01 18:14:00,
2013-03-01 10:15:00,57.6,22.0,30.41,ESE,112,5.4,5.4,25,0.00,,,0.00,VWS V14.00,2013-03-01 18:15:00,
2013-03-01 10:16:00,57.7,22.2,30.41,NE,45,4.7,5.4,25,0.00,,,0.00,VWS V14.00,2013-03-01 18:16:00,
2013-03-01 10:17:00,57.7,22.2,30.41,South,180,4.0,4.7,25,0.00,,,0.00,VWS V14.00,2013-03-01 18:17:00,
2013-03-01 10:18:00,57.7,22.2,30.41,ESE,112,5.6,5.6,25,0.00,,,0.00,VWS V14.00,2013-03-01 18:18:00,
2013-03-01 10:19:00,57.7,22.2,30.41,South,180,2.2,5.6,25,0.00,,,0.00,VWS V14.00,2013-03-01 18:19:00,
2013-03-01 10:20:00,57.7,22.2,30.41,East,90,5.4,5.4,25,0.00,,,0.00,VWS V14.00,2013-03-01 18:20:00,
2013-03-01 10:21:00,57.9,22.3,30.41,East,90,4.3,5.4,25,0.00,,,0.00,VWS V14.00,2013-03-01 18:21:00,
2013-03-01 10:22:00,57.9,22.3,30.41,NE,45,3.1,4.3,25,0.00,,,0.00,VWS V14.00,2013-03-01 18:22:00,
2013-03-01 10:23:00,58.1,22.5,30.41,NE,45,3.1,3.1,25,0.00,,,0.00,VWS V14.00,2013-03-01 18:23:00,
2013-03-01 10:24:00,58.1,22.5,30.41,East,90,2.9,3.1,25,0.00,,,0.00,VWS V14.00,2013-03-01 18:24:00,
2013-03-01 10:25:00,58.1,22.5,30.41,East,90,2.7,2.9,25,0.00,,,0.00,VWS V14.00,2013-03-01 18:25:00,
2013-03-01 10:26:00,58.1,22.5,30.41,SE,135,4.9,4.9,25,0.00,,,0.00,VWS V14.00,2013-03-01 18:26:00,
2013-03-01 10:27:00,57.9,22.3,30.41,East,90,5.4,5.4,25,0.00,,,0.00,VWS V14.00,2013-03-01 18:27:00,
2013-03-01 10:28:00,57.9,22.3,30.41,East,90,5.4,5.4,25,0.00,,,0.00,VWS V14.00,2013-03-01 18:28:00,
2013-03-01 10:29:00,57.9,22.3,30.41,East,90,6.3,6.3,25,0.00,,,0.00,VWS V14.00,2013-03-01 18:29:00,
2013-03-01 10:30:00,58.3,22.6,30.41,SSW,202,3.6,6.3,25,0.00,,,0.00,VWS V14.00,2013-03-01 18:30:00,
2013-03-01 10:31:00,58.3,22.6,30.41,SSW,202,3.6,3.6,25,0.00,,,0.00,VWS V14.00,2013-03-01 18:31:00,
2013-03-01 10:32:00,58.3,22.6,30.41,East,90,3.6,3.6,25,0.00,,,0.00,VWS V14.00,2013-03-01 18:32:00,
2013-03-01 10:33:00,58.3,22.6,30.41,ESE,112,3.6,3.6,25,0.00,,,0.00,VWS V14.00,2013-03-01 18:33:00,
2013-03-01 10:34:00,58.3,22.6,30.41,ESE,112,3.6,3.6,25,0.00,,,0.00,VWS V14.00,2013-03-01 18:34:00,
2013-03-01 10:35:00,58.3,22.6,30.41,ESE,112,5.6,5.6,25,0.00,,,0.00,VWS V14.00,2013-03-01 18:35:00,
2013-03-01 10:36:00,58.3,22.6,30.41,East,90,7.6,7.6,25,0.00,,,0.00,VWS V14.00,2013-03-01 18:36:00,
2013-03-01 10:37:00,58.3,22.6,30.41,East,90,6.5,7.6,25,0.00,,,0.00,VWS V14.00,2013-03-01 18:37:00,
2013-03-01 10:38:00,58.3,22.6,30.41,East,90,6.5,6.5,25,0.00,,,0.00,VWS V14.00,2013-03-01 18:38:00,
2013-03-01 10:39:00,58.5,22.8,30.41,East,90,4.3,4.3,25,0.00,,,0.00,VWS V14.00,2013-03-01 18:39:00,
2013-03-01 10:40:00,58.5,22.8,30.41,NE,45,3.1,4.3,25,0.00,,,0.00,VWS V14.00,2013-03-01 18:40:00,
2013-03-01 10:42:00,58.6,22.9,30.41,East,90,5.8,5.8,25,0.00,,,0.00,VWS V14.00,2013-03-01 18:42:00,
2013-03-01 10:43:00,58.6,22.9,30.41,ESE,112,3.6,5.8,25,0.00,,,0.00,VWS V14.00,2013-03-01 18:43:00,
2013-03-01 10:44:00,58.8,23.1,30.41,ENE,68,10.3,10.3,25,0.00,,,0.00,VWS V14.00,2013-03-01 18:44:00,
2013-03-01 10:45:00,58.8,23.1,30.41,ESE,112,3.8,10.3,25,0.00,,,0.00,VWS V14.00,2013-03-01 18:45:00,
2013-03-01 10:46:00,58.6,22.9,30.41,East,90,3.8,3.8,25,0.00,,,0.00,VWS V14.00,2013-03-01 18:46:00,
2013-03-01 10:47:00,58.6,22.9,30.41,East,90,3.4,3.8,25,0.00,,,0.00,VWS V14.00,2013-03-01 18:47:00,
2013-03-01 10:48:00,58.6,22.9,30.41,East,90,2.2,3.4,25,0.00,,,0.00,VWS V14.00,2013-03-01 18:48:00,
2013-03-01 10:49:00,58.6,22.9,30.41,ENE,68,8.5,8.5,25,0.00,,,0.00,VWS V14.00,2013-03-01 18:49:00,
2013-03-01 10:50:00,58.6,22.9,30.41,NNW,338,5.4,8.5,25,0.00,,,0.00,VWS V14.00,2013-03-01 18:50:00,
2013-03-01 10:51:00,58.6,22.9,30.41,SE,135,4.3,5.6,25,0.00,,,0.00,VWS V14.00,2013-03-01 18:51:00,
2013-03-01 10:52:00,58.6,22.9,30.41,East,90,5.8,5.8,25,0.00,,,0.00,VWS V14.00,2013-03-01 18:52:00,
2013-03-01 10:53:00,58.5,22.8,30.41,East,90,5.8,5.8,25,0.00,,,0.00,VWS V14.00,2013-03-01 18:53:00,
2013-03-01 10:54:00,58.5,22.8,30.41,ESE,112,2.5,5.8,25,0.00,,,0.00,VWS V14.00,2013-03-01 18:54:00,
2013-03-01 10:55:00,58.5,21.8,30.41,East,90,3.1,3.1,24,0.00,,,0.00,VWS V14.00,2013-03-01 18:55:00,
2013-03-01 10:56:00,58.5,21.8,30.41,ESE,112,5.6,5.6,24,0.00,,,0.00,VWS V14.00,2013-03-01 18:56:00,
2013-03-01 10:57:00,58.6,22.9,30.41,NE,45,7.2,7.2,25,0.00,,,0.00,VWS V14.00,2013-03-01 18:57:00,
2013-03-01 10:58:00,58.8,23.1,30.41,East,90,5.8,7.2,25,0.00,,,0.00,VWS V14.00,2013-03-01 18:58:00,
2013-03-01 10:59:00,58.8,23.1,30.41,East,90,7.2,7.2,25,0.00,,,0.00,VWS V14.00,2013-03-01 18:59:00,
2013-03-01 11:00:00,58.8,23.1,30.41,ENE,68,4.0,7.2,25,0.00,,,0.00,VWS V14.00,2013-03-01 19:00:00,
2013-03-01 11:01:00,58.8,23.1,30.41,East,90,3.8,4.0,25,0.00,,,0.00,VWS V14.00,2013-03-01 19:01:00,
2013-03-01 11:02:00,58.8,22.1,30.41,East,90,5.4,5.4,24,0.00,,,0.00,VWS V14.00,2013-03-01 19:02:00,
2013-03-01 11:03:00,58.8,22.1,30.41,East,90,5.4,5.4,24,0.00,,,0.00,VWS V14.00,2013-03-01 19:03:00,
2013-03-01 11:04:00,59.0,22.3,30.39,East,90,3.8,5.4,24,0.00,,,0.00,VWS V14.00,2013-03-01 19:04:00,
2013-03-01 11:05:00,59.0,22.3,30.39,East,90,2.9,3.8,24,0.00,,,0.00,VWS V14.00,2013-03-01 19:05:00,
2013-03-01 11:06:00,59.2,22.4,30.39,East,90,3.4,6.9,24,0.00,,,0.00,VWS V14.00,2013-03-01 19:06:00,
2013-03-01 11:07:00,59.2,22.4,30.39,ESE,112,3.1,3.4,24,0.00,,,0.00,VWS V14.00,2013-03-01 19:07:00,
2013-03-01 11:08:00,59.2,22.4,30.39,East,90,4.3,4.3,24,0.00,,,0.00,VWS V14.00,2013-03-01 19:08:00,
2013-03-01 11:09:00,59.0,22.3,30.39,SW,225,2.7,4.3,24,0.00,,,0.00,VWS V14.00,2013-03-01 19:09:00,
2013-03-01 11:10:00,59.0,22.3,30.39,SE,135,1.6,2.7,24,0.00,,,0.00,VWS V14.00,2013-03-01 19:10:00,
2013-03-01 11:11:00,59.0,22.3,30.39,SE,135,1.6,1.6,24,0.00,,,0.00,VWS V14.00,2013-03-01 19:11:00,
2013-03-01 11:12:00,59.0,22.3,30.39,ESE,112,3.4,3.4,24,0.00,,,0.00,VWS V14.00,2013-03-01 19:12:00,
2013-03-01 11:13:00,59.2,22.4,30.39,SE,135,4.0,4.0,24,0.00,,,0.00,VWS V14.00,2013-03-01 19:13:00,
2013-03-01 11:14:00,59.2,22.4,30.39,East,90,3.4,4.0,24,0.00,,,0.00,VWS V14.00,2013-03-01 19:14:00,
2013-03-01 11:15:00,59.2,22.4,30.39,East,90,3.6,3.6,24,0.00,,,0.00,VWS V14.00,2013-03-01 19:15:00,
2013-03-01 11:16:00,59.2,22.4,30.39,East,90,3.6,3.6,24,0.00,,,0.00,VWS V14.00,2013-03-01 19:16:00,
2013-03-01 11:17:00,59.2,22.4,30.39,ENE,68,7.4,7.4,24,0.00,,,0.00,VWS V14.00,2013-03-01 19:17:00,
2013-03-01 11:18:00,59.2,22.4,30.39,East,90,2.9,7.4,24,0.00,,,0.00,VWS V14.00,2013-03-01 19:18:00,
2013-03-01 11:19:00,59.2,22.4,30.39,ESE,112,8.5,8.5,24,0.00,,,0.00,VWS V14.00,2013-03-01 19:19:00,
2013-03-01 11:20:00,59.2,22.4,30.39,East,90,5.4,8.5,24,0.00,,,0.00,VWS V14.00,2013-03-01 19:20:00,
2013-03-01 11:21:00,59.5,22.7,30.39,East,90,10.7,10.7,24,0.00,,,0.00,VWS V14.00,2013-03-01 19:21:00,
2013-03-01 11:22:00,59.5,22.7,30.39,ESE,112,7.8,10.7,24,0.00,,,0.00,VWS V14.00,2013-03-01 19:22:00,
2013-03-01 11:23:00,59.4,22.6,30.39,East,90,6.0,7.8,24,0.00,,,0.00,VWS V14.00,2013-03-01 19:23:00,
2013-03-01 11:24:00,59.4,22.6,30.39,East,90,5.6,6.0,24,0.00,,,0.00,VWS V14.00,2013-03-01 19:24:00,
2013-03-01 11:25:00,59.4,22.6,30.39,ESE,112,7.6,7.6,24,0.00,,,0.00,VWS V14.00,2013-03-01 19:25:00,
2013-03-01 11:26:00,59.4,22.6,30.39,East,90,6.3,7.6,24,0.00,,,0.00,VWS V14.00,2013-03-01 19:26:00,
2013-03-01 11:27:00,59.2,22.4,30.39,SE,135,8.5,8.5,24,0.00,,,0.00,VWS V14.00,2013-03-01 19:27:00,
2013-03-01 11:28:00,59.4,22.6,30.39,SSE,158,2.7,2.7,24,0.00,,,0.00,VWS V14.00,2013-03-01 19:28:00,
2013-03-01 11:29:00,59.4,22.6,30.39,East,90,11.0,11.0,24,0.00,,,0.00,VWS V14.00,2013-03-01 19:29:00,
2013-03-01 11:30:00,59.4,22.6,30.39,East,90,4.0,11.0,24,0.00,,,0.00,VWS V14.00,2013-03-01 19:30:00,
2013-03-01 11:31:00,59.4,22.6,30.39,East,90,2.0,4.0,24,0.00,,,0.00,VWS V14.00,2013-03-01 19:31:00,
2013-03-01 11:32:00,59.4,22.6,30.39,South,180,3.1,3.1,24,0.00,,,0.00,VWS V14.00,2013-03-01 19:32:00,
2013-03-01 11:33:00,59.4,22.6,30.39,ESE,112,3.8,3.8,24,0.00,,,0.00,VWS V14.00,2013-03-01 19:33:00,
2013-03-01 11:34:00,59.7,22.9,30.39,ENE,68,3.1,3.8,24,0.00,,,0.00,VWS V14.00,2013-03-01 19:34:00,
2013-03-01 11:35:00,59.7,22.9,30.39,ENE,68,3.1,3.1,24,0.00,,,0.00,VWS V14.00,2013-03-01 19:35:00,
2013-03-01 11:36:00,59.9,23.0,30.39,East,90,5.6,5.6,24,0.00,,,0.00,VWS V14.00,2013-03-01 19:36:00,
2013-03-01 11:37:00,59.7,22.9,30.39,East,90,5.6,5.6,24,0.00,,,0.00,VWS V14.00,2013-03-01 19:37:00,
2013-03-01 11:38:00,59.7,22.9,30.39,NE,45,3.4,5.6,24,0.00,,,0.00,VWS V14.00,2013-03-01 19:38:00,
2013-03-01 11:39:00,59.7,22.9,30.39,South,180,1.3,3.4,24,0.00,,,0.00,VWS V14.00,2013-03-01 19:39:00,
2013-03-01 11:40:00,59.7,22.9,30.39,East,90,6.0,6.0,24,0.00,,,0.00,VWS V14.00,2013-03-01 19:40:00,
2013-03-01 11:41:00,59.7,22.9,30.39,ENE,68,5.4,6.0,24,0.00,,,0.00,VWS V14.00,2013-03-01 19:41:00,
2013-03-01 11:42:00,59.7,22.9,30.39,East,90,6.3,6.3,24,0.00,,,0.00,VWS V14.00,2013-03-01 19:42:00,
2013-03-01 11:43:00,59.9,23.0,30.39,East,90,5.8,5.8,24,0.00,,,0.00,VWS V14.00,2013-03-01 19:43:00,
2013-03-01 11:44:00,59.9,23.0,30.39,East,90,3.4,5.8,24,0.00,,,0.00,VWS V14.00,2013-03-01 19:44:00,
2013-03-01 11:45:00,59.9,23.0,30.39,East,90,5.4,5.4,24,0.00,,,0.00,VWS V14.00,2013-03-01 19:45:00,
2013-03-01 11:46:00,59.9,23.0,30.39,ENE,68,3.8,5.4,24,0.00,,,0.00,VWS V14.00,2013-03-01 19:46:00,
2013-03-01 11:47:00,59.9,23.0,30.39,East,90,5.8,5.8,24,0.00,,,0.00,VWS V14.00,2013-03-01 19:47:00,
2013-03-01 11:48:00,60.3,23.4,30.39,East,90,4.0,5.8,24,0.00,,,0.00,VWS V14.00,2013-03-01 19:48:00,
2013-03-01 11:49:00,60.3,23.4,30.39,East,90,3.1,4.0,24,0.00,,,0.00,VWS V14.00,2013-03-01 19:49:00,
2013-03-01 11:50:00,60.1,23.2,30.39,East,90,4.9,4.9,24,0.00,,,0.00,VWS V14.00,2013-03-01 19:50:00,
2013-03-01 11:51:00,60.1,23.2,30.39,East,90,4.9,4.9,24,0.00,,,0.00,VWS V14.00,2013-03-01 19:51:00,
2013-03-01 11:52:00,60.1,23.2,30.39,ESE,112,4.7,4.9,24,0.00,,,0.00,VWS V14.00,2013-03-01 19:52:00,
2013-03-01 11:53:00,59.9,23.0,30.39,East,90,3.4,4.7,24,0.00,,,0.00,VWS V14.00,2013-03-01 19:53:00,
2013-03-01 11:54:00,59.9,23.0,30.39,SSW,202,2.7,3.4,24,0.00,,,0.00,VWS V14.00,2013-03-01 19:54:00,
2013-03-01 11:55:00,59.9,23.0,30.39,SE,135,2.7,2.7,24,0.00,,,0.00,VWS V14.00,2013-03-01 19:55:00,
2013-03-01 11:56:00,59.9,23.0,30.39,SE,135,2.7,2.7,24,0.00,,,0.00,VWS V14.00,2013-03-01 19:56:00,
2013-03-01 11:57:00,60.1,23.2,30.39,ENE,68,2.7,2.7,24,0.00,,,0.00,VWS V14.00,2013-03-01 19:57:00,
2013-03-01 11:58:00,60.1,23.2,30.39,ESE,112,3.4,3.4,24,0.00,,,0.00,VWS V14.00,2013-03-01 19:58:00,
2013-03-01 11:59:00,60.1,23.2,30.39,ENE,68,3.8,3.8,24,0.00,,,0.00,VWS V14.00,2013-03-01 19:59:00,
2013-03-01 12:00:00,60.1,23.2,30.39,ENE,68,3.8,3.8,24,0.00,,,0.00,VWS V14.00,2013-03-01 20:00:00,
2013-03-01 12:01:00,60.1,23.2,30.39,ENE,68,3.8,3.8,24,0.00,,,0.00,VWS V14.00,2013-03-01 20:01:00,
2013-03-01 12:02:00,60.3,23.4,30.39,ENE,68,3.8,3.8,24,0.00,,,0.00,VWS V14.00,2013-03-01 20:02:00,
2013-03-01 12:03:00,60.6,23.6,30.39,SE,135,5.6,5.6,24,0.00,,,0.00,VWS V14.00,2013-03-01 20:03:00,
2013-03-01 12:04:00,60.6,23.6,30.39,SE,135,5.6,5.6,24,0.00,,,0.00,VWS V14.00,2013-03-01 20:04:00,
2013-03-01 12:05:00,60.6,23.6,30.39,SE,135,5.6,5.6,24,0.00,,,0.00,VWS V14.00,2013-03-01 20:05:00,
2013-03-01 12:06:00,60.6,23.6,30.39,SE,135,5.6,5.6,24,0.00,,,0.00,VWS V14.00,2013-03-01 20:06:00,
2013-03-01 12:07:00,60.8,23.8,30.39,East,90,2.7,5.6,24,0.00,,,0.00,VWS V14.00,2013-03-01 20:07:00,
2013-03-01 12:08:00,60.8,23.8,30.39,East,90,2.7,2.7,24,0.00,,,0.00,VWS V14.00,2013-03-01 20:08:00,
2013-03-01 12:09:00,60.6,23.6,30.39,East,90,2.7,2.7,24,0.00,,,0.00,VWS V14.00,2013-03-01 20:09:00,
2013-03-01 12:10:00,60.6,23.6,30.39,East,90,2.7,2.7,24,0.00,,,0.00,VWS V14.00,2013-03-01 20:10:00,
2013-03-01 12:11:00,61.0,24.0,30.39,ESE,112,6.0,6.0,24,0.00,,,0.00,VWS V14.00,2013-03-01 20:11:00,
2013-03-01 12:12:00,61.0,24.0,30.39,ENE,68,2.7,6.0,24,0.00,,,0.00,VWS V14.00,2013-03-01 20:12:00,
2013-03-01 12:13:00,60.8,23.8,30.39,SE,135,2.5,7.8,24,0.00,,,0.00,VWS V14.00,2013-03-01 20:13:00,
2013-03-01 12:14:00,60.8,23.8,30.39,ENE,68,5.4,7.8,24,0.00,,,0.00,VWS V14.00,2013-03-01 20:14:00,
2013-03-01 12:15:00,60.8,23.8,30.39,SE,135,5.6,5.6,24,0.00,,,0.00,VWS V14.00,2013-03-01 20:15:00,
2013-03-01 12:16:00,61.0,24.0,30.39,SE,135,5.6,5.6,24,0.00,,,0.00,VWS V14.00,2013-03-01 20:16:00,
2013-03-01 12:17:00,61.0,24.0,30.39,ESE,112,3.4,5.6,24,0.00,,,0.00,VWS V14.00,2013-03-01 20:17:00,
2013-03-01 12:18:00,61.0,24.0,30.39,East,90,4.3,4.3,24,0.00,,,0.00,VWS V14.00,2013-03-01 20:18:00,
2013-03-01 12:19:00,61.0,24.0,30.39,East,90,3.8,4.3,24,0.00,,,0.00,VWS V14.00,2013-03-01 20:19:00,
2013-03-01 12:20:00,61.2,24.1,30.39,East,90,4.3,4.3,24,0.00,,,0.00,VWS V14.00,2013-03-01 20:20:00,
2013-03-01 12:21:00,61.2,24.1,30.39,East,90,5.6,5.6,24,0.00,,,0.00,VWS V14.00,2013-03-01 20:21:00,
2013-03-01 12:22:00,61.0,24.0,30.39,SE,135,3.8,5.6,24,0.00,,,0.00,VWS V14.00,2013-03-01 20:22:00,
2013-03-01 12:23:00,61.2,24.1,30.39,East,90,3.8,3.8,24,0.00,,,0.00,VWS V14.00,2013-03-01 20:23:00,
2013-03-01 12:24:00,61.2,24.1,30.39,East,90,4.9,4.9,24,0.00,,,0.00,VWS V14.00,2013-03-01 20:24:00,
2013-03-01 12:25:00,61.2,24.1,30.39,East,90,2.9,4.9,24,0.00,,,0.00,VWS V14.00,2013-03-01 20:25:00,
2013-03-01 12:26:00,61.2,24.1,30.39,ESE,112,4.9,4.9,24,0.00,,,0.00,VWS V14.00,2013-03-01 20:26:00,
2013-03-01 12:27:00,61.3,24.3,30.39,East,90,5.8,5.8,24,0.00,,,0.00,VWS V14.00,2013-03-01 20:27:00,
2013-03-01 12:28:00,61.5,24.4,30.39,ENE,68,3.1,3.1,24,0.00,,,0.00,VWS V14.00,2013-03-01 20:28:00,
2013-03-01 12:29:00,61.5,24.4,30.39,East,90,6.9,6.9,24,0.00,,,0.00,VWS V14.00,2013-03-01 20:29:00,
2013-03-01 12:30:00,61.3,24.3,30.39,East,90,3.4,6.9,24,0.00,,,0.00,VWS V14.00,2013-03-01 20:30:00,
2013-03-01 12:31:00,61.3,24.3,30.39,ESE,112,3.6,3.6,24,0.00,,,0.00,VWS V14.00,2013-03-01 20:31:00,
2013-03-01 12:32:00,61.7,24.6,30.39,East,90,1.6,3.6,24,0.00,,,0.00,VWS V14.00,2013-03-01 20:32:00,
2013-03-01 12:33:00,61.3,24.3,30.39,ESE,112,5.4,5.4,24,0.00,,,0.00,VWS V14.00,2013-03-01 20:33:00,
2013-03-01 12:34:00,61.3,24.3,30.39,East,90,6.3,6.3,24,0.00,,,0.00,VWS V14.00,2013-03-01 20:34:00,
2013-03-01 12:35:00,61.3,24.3,30.39,ESE,112,3.4,6.3,24,0.00,,,0.00,VWS V14.00,2013-03-01 20:35:00,
2013-03-01 12:36:00,61.5,24.4,30.39,ESE,112,3.1,3.4,24,0.00,,,0.00,VWS V14.00,2013-03-01 20:36:00,
2013-03-01 12:37:00,61.5,24.4,30.39,ESE,112,3.1,3.1,24,0.00,,,0.00,VWS V14.00,2013-03-01 20:37:00,
2013-03-01 12:38:00,61.5,24.4,30.39,ESE,112,3.1,3.1,24,0.00,,,0.00,VWS V14.00,2013-03-01 20:38:00,
2013-03-01 12:39:00,61.7,24.6,30.39,SSE,158,2.7,3.1,24,0.00,,,0.00,VWS V14.00,2013-03-01 20:39:00,
2013-03-01 12:40:00,61.7,24.6,30.39,South,180,4.7,4.7,24,0.00,,,0.00,VWS V14.00,2013-03-01 20:40:00,
2013-03-01 12:41:00,61.5,24.4,30.39,NE,45,2.7,4.7,24,0.00,,,0.00,VWS V14.00,2013-03-01 20:41:00,
2013-03-01 12:42:00,61.5,24.4,30.39,ENE,68,3.1,3.1,24,0.00,,,0.00,VWS V14.00,2013-03-01 20:42:00,
2013-03-01 12:43:00,61.7,24.6,30.39,East,90,7.4,7.4,24,0.00,,,0.00,VWS V14.00,2013-03-01 20:43:00,
2013-03-01 12:44:00,61.7,24.6,30.39,ENE,68,4.3,7.4,24,0.00,,,0.00,VWS V14.00,2013-03-01 20:44:00,
2013-03-01 12:45:00,61.7,24.6,30.39,ENE,68,4.3,4.3,24,0.00,,,0.00,VWS V14.00,2013-03-01 20:45:00,
2013-03-01 12:46:00,61.7,24.6,30.39,East,90,5.4,5.4,24,0.00,,,0.00,VWS V14.00,2013-03-01 20:46:00,
2013-03-01 12:47:00,61.7,24.6,30.39,East,90,6.5,6.5,24,0.00,,,0.00,VWS V14.00,2013-03-01 20:47:00,
2013-03-01 12:48:00,61.5,24.4,30.39,ENE,68,6.3,6.3,24,0.00,,,0.00,VWS V14.00,2013-03-01 20:48:00,
2013-03-01 12:49:00,61.5,24.4,30.36,East,90,3.6,6.3,24,0.00,,,0.00,VWS V14.00,2013-03-01 20:49:00,
2013-03-01 12:50:00,61.3,24.3,30.36,ESE,112,2.7,3.6,24,0.00,,,0.00,VWS V14.00,2013-03-01 20:50:00,
2013-03-01 12:51:00,61.3,24.3,30.36,NE,45,3.8,3.8,24,0.00,,,0.00,VWS V14.00,2013-03-01 20:51:00,
2013-03-01 12:52:00,61.5,24.4,30.36,SE,135,4.9,4.9,24,0.00,,,0.00,VWS V14.00,2013-03-01 20:52:00,
2013-03-01 12:53:00,61.7,24.6,30.36,East,90,2.9,4.3,24,0.00,,,0.00,VWS V14.00,2013-03-01 20:53:00,
2013-03-01 12:54:00,61.7,24.6,30.36,East,90,2.9,4.3,24,0.00,,,0.00,VWS V14.00,2013-03-01 20:54:00,
2013-03-01 12:55:00,61.7,24.6,30.36,SSE,158,1.3,2.9,24,0.00,,,0.00,VWS V14.00,2013-03-01 20:55:00,
2013-03-01 12:56:00,61.7,24.6,30.36,ENE,68,5.8,5.8,24,0.00,,,0.00,VWS V14.00,2013-03-01 20:56:00,
2013-03-01 12:57:00,61.5,24.4,30.36,ESE,112,4.3,5.8,24,0.00,,,0.00,VWS V14.00,2013-03-01 20:57:00,
2013-03-01 12:58:00,61.5,24.4,30.36,East,90,1.3,4.3,24,0.00,,,0.00,VWS V14.00,2013-03-01 20:58:00,
2013-03-01 12:59:00,61.5,24.4,30.36,East,90,3.1,4.3,24,0.00,,,0.00,VWS V14.00,2013-03-01 20:59:00,
2013-03-01 13:00:00,61.5,24.4,30.36,East,90,3.1,3.1,24,0.00,,,0.00,VWS V14.00,2013-03-01 21:00:00,
2013-03-01 13:01:00,61.5,24.4,30.36,SSE,158,3.6,6.0,24,0.00,,,0.00,VWS V14.00,2013-03-01 21:01:00,
2013-03-01 13:02:00,61.7,24.6,30.36,ESE,112,7.4,7.4,24,0.00,,,0.00,VWS V14.00,2013-03-01 21:02:00,
2013-03-01 13:03:00,61.5,24.4,30.36,ESE,112,1.6,1.6,24,0.00,,,0.00,VWS V14.00,2013-03-01 21:03:00,
2013-03-01 13:04:00,61.5,24.4,30.36,East,90,2.9,2.9,24,0.00,,,0.00,VWS V14.00,2013-03-01 21:04:00,
2013-03-01 13:05:00,61.5,24.4,30.36,East,90,2.9,2.9,24,0.00,,,0.00,VWS V14.00,2013-03-01 21:05:00,
2013-03-01 13:06:00,61.7,24.6,30.36,ESE,112,10.7,10.7,24,0.00,,,0.00,VWS V14.00,2013-03-01 21:06:00,
2013-03-01 13:07:00,61.7,24.6,30.36,ESE,112,3.8,10.7,24,0.00,,,0.00,VWS V14.00,2013-03-01 21:07:00,
2013-03-01 13:08:00,61.7,24.6,30.36,NE,45,1.1,3.4,24,0.00,,,0.00,VWS V14.00,2013-03-01 21:08:00,
2013-03-01 13:09:00,61.7,24.6,30.36,NE,45,1.1,3.4,24,0.00,,,0.00,VWS V14.00,2013-03-01 21:09:00,
2013-03-01 13:10:00,61.7,24.6,30.36,SSE,158,2.0,2.7,24,0.00,,,0.00,VWS V14.00,2013-03-01 21:10:00,
2013-03-01 13:11:00,61.3,24.3,30.36,SSE,158,2.0,2.0,24,0.00,,,0.00,VWS V14.00,2013-03-01 21:11:00,
2013-03-01 13:12:00,61.3,24.3,30.36,ENE,68,5.8,5.8,24,0.00,,,0.00,VWS V14.00,2013-03-01 21:12:00,
2013-03-01 13:13:00,61.7,24.6,30.36,SE,135,3.1,3.1,24,0.00,,,0.00,VWS V14.00,2013-03-01 21:13:00,
2013-03-01 13:14:00,61.7,24.6,30.36,SE,135,3.1,3.1,24,0.00,,,0.00,VWS V14.00,2013-03-01 21:14:00,
2013-03-01 13:15:00,61.9,24.7,30.36,East,90,3.8,5.4,24,0.00,,,0.00,VWS V14.00,2013-03-01 21:15:00,
2013-03-01 13:16:00,61.9,24.7,30.36,East,90,3.1,3.8,24,0.00,,,0.00,VWS V14.00,2013-03-01 21:16:00,
2013-03-01 13:17:00,61.9,24.7,30.36,East,90,7.6,7.6,24,0.00,,,0.00,VWS V14.00,2013-03-01 21:17:00,
2013-03-01 13:18:00,61.5,24.4,30.36,SSE,158,6.0,6.0,24,0.00,,,0.00,VWS V14.00,2013-03-01 21:18:00,
2013-03-01 13:19:00,61.5,24.4,30.36,East,90,4.3,6.0,24,0.00,,,0.00,VWS V14.00,2013-03-01 21:19:00,
2013-03-01 13:20:00,61.5,24.4,30.36,ENE,68,6.0,6.0,24,0.00,,,0.00,VWS V14.00,2013-03-01 21:20:00,
2013-03-01 13:21:00,61.5,24.4,30.36,SSE,158,5.8,6.0,24,0.00,,,0.00,VWS V14.00,2013-03-01 21:21:00,
2013-03-01 13:22:00,61.3,24.3,30.36,ENE,68,3.4,5.8,24,0.00,,,0.00,VWS V14.00,2013-03-01 21:22:00,
2013-03-01 13:23:00,61.7,24.6,30.36,East,90,2.5,4.0,24,0.00,,,0.00,VWS V14.00,2013-03-01 21:23:00,
2013-03-01 13:24:00,61.7,24.6,30.36,East,90,7.2,7.2,24,0.00,,,0.00,VWS V14.00,2013-03-01 21:24:00,
2013-03-01 13:25:00,61.9,24.7,30.36,East,90,7.2,7.2,24,0.00,,,0.00,VWS V14.00,2013-03-01 21:25:00,
2013-03-01 13:26:00,61.9,24.7,30.36,ESE,112,6.0,7.2,24,0.00,,,0.00,VWS V14.00,2013-03-01 21:26:00,
2013-03-01 13:27:00,61.9,21.5,30.36,ESE,112,3.1,6.0,21,0.00,,,0.00,VWS V14.00,2013-03-01 21:27:00,
2013-03-01 13:28:00,62.1,24.9,30.36,East,90,4.3,4.3,24,0.00,,,0.00,VWS V14.00,2013-03-01 21:28:00,
2013-03-01 13:29:00,62.1,24.9,30.36,SE,135,4.0,4.3,24,0.00,,,0.00,VWS V14.00,2013-03-01 21:29:00,
2013-03-01 13:30:00,61.9,24.7,30.36,SSE,158,3.4,4.0,24,0.00,,,0.00,VWS V14.00,2013-03-01 21:30:00,
2013-03-01 13:31:00,61.9,24.7,30.36,East,90,2.7,3.4,24,0.00,,,0.00,VWS V14.00,2013-03-01 21:31:00,
2013-03-01 13:32:00,61.5,24.4,30.36,NE,45,2.7,2.7,24,0.00,,,0.00,VWS V14.00,2013-03-01 21:32:00,
2013-03-01 13:34:00,61.5,24.4,30.36,ESE,112,2.9,4.9,24,0.00,,,0.00,VWS V14.00,2013-03-01 21:34:00,
2013-03-01 13:39:00,61.5,24.4,30.36,East,90,4.3,4.3,24,0.00,,,0.00,VWS V14.00,2013-03-01 21:39:00,
2013-03-01 13:43:00,61.5,24.4,30.36,ESE,112,2.9,5.6,24,0.00,,,0.00,VWS V14.00,2013-03-01 21:43:00,
2013-03-01 13:44:00,61.5,24.4,30.36,East,90,2.9,2.9,24,0.00,,,0.00,VWS V14.00,2013-03-01 21:44:00,
2013-03-01 13:45:00,61.5,24.4,30.36,WSW,248,3.1,3.1,24,0.00,,,0.00,VWS V14.00,2013-03-01 21:45:00,
2013-03-01 13:46:00,61.3,24.3,30.36,ESE,112,4.0,4.0,24,0.00,,,0.00,VWS V14.00,2013-03-01 21:46:00,
2013-03-01 13:47:00,61.3,24.3,30.36,NE,45,6.5,6.5,24,0.00,,,0.00,VWS V14.00,2013-03-01 21:47:00,
2013-03-01 13:48:00,61.5,21.2,30.36,East,90,3.6,6.5,21,0.00,,,0.00,VWS V14.00,2013-03-01 21:48:00,
2013-03-01 13:49:00,61.5,21.2,30.36,ESE,112,3.4,3.6,21,0.00,,,0.00,VWS V14.00,2013-03-01 21:49:00,
2013-03-01 13:50:00,61.3,24.3,30.36,West,270,4.0,4.0,24,0.00,,,0.00,VWS V14.00,2013-03-01 21:50:00,
2013-03-01 13:51:00,61.3,24.3,30.36,SE,135,4.0,4.0,24,0.00,,,0.00,VWS V14.00,2013-03-01 21:51:00,
2013-03-01 13:52:00,61.3,21.1,30.36,SSE,158,3.6,4.9,21,0.00,,,0.00,VWS V14.00,2013-03-01 21:52:00,
2013-03-01 13:53:00,61.5,24.4,30.36,East,90,4.0,4.0,24,0.00,,,0.00,VWS V14.00,2013-03-01 21:53:00,
2013-03-01 13:54:00,61.5,24.4,30.36,ESE,112,3.1,4.0,24,0.00,,,0.00,VWS V14.00,2013-03-01 21:54:00,
2013-03-01 13:55:00,61.3,21.1,30.36,East,90,3.4,3.4,21,0.00,,,0.00,VWS V14.00,2013-03-01 21:55:00,
2013-03-01 13:56:00,61.3,21.1,30.36,SE,135,2.2,3.4,21,0.00,,,0.00,VWS V14.00,2013-03-01 21:56:00,
2013-03-01 13:57:00,61.2,24.1,30.36,SE,135,4.3,4.3,24,0.00,,,0.00,VWS V14.00,2013-03-01 21:57:00,
2013-03-01 13:58:00,61.2,24.1,30.36,East,90,3.6,4.3,24,0.00,,,0.00,VWS V14.00,2013-03-01 21:58:00,
2013-03-01 13:59:00,61.3,24.3,30.36,SE,135,2.5,3.6,24,0.00,,,0.00,VWS V14.00,2013-03-01 21:59:00,
2013-03-01 14:00:00,61.3,24.3,30.36,ESE,112,6.3,6.3,24,0.00,,,0.00,VWS V14.00,2013-03-01 22:00:00,
2013-03-01 14:01:00,61.3,24.3,30.36,SE,135,2.9,6.3,24,0.00,,,0.00,VWS V14.00,2013-03-01 22:01:00,
2013-03-01 14:02:00,61.0,24.0,30.36,East,90,2.5,2.9,24,0.00,,,0.00,VWS V14.00,2013-03-01 22:02:00,
2013-03-01 14:03:00,61.0,24.0,30.36,East,90,4.5,4.5,24,0.00,,,0.00,VWS V14.00,2013-03-01 22:03:00,
2013-03-01 14:04:00,60.8,20.6,30.36,SE,135,3.1,4.5,21,0.00,,,0.00,VWS V14.00,2013-03-01 22:04:00,
2013-03-01 14:05:00,60.8,20.6,30.36,ESE,112,8.1,8.1,21,0.00,,,0.00,VWS V14.00,2013-03-01 22:05:00,
2013-03-01 14:06:00,60.8,23.8,30.36,SE,135,2.5,8.1,24,0.00,,,0.00,VWS V14.00,2013-03-01 22:06:00,
2013-03-01 14:07:00,60.8,23.8,30.36,SE,135,2.5,2.5,24,0.00,,,0.00,VWS V14.00,2013-03-01 22:07:00,
2013-03-01 14:08:00,60.8,23.8,30.36,ESE,112,3.6,3.6,24,0.00,,,0.00,VWS V14.00,2013-03-01 22:08:00,
2013-03-01 14:09:00,61.0,24.0,30.36,East,90,3.8,3.8,24,0.00,,,0.00,VWS V14.00,2013-03-01 22:09:00,
2013-03-01 14:10:00,61.0,24.0,30.36,ENE,68,3.1,3.8,24,0.00,,,0.00,VWS V14.00,2013-03-01 22:10:00,
2013-03-01 14:11:00,61.2,20.9,30.36,ESE,112,1.6,3.1,21,0.00,,,0.00,VWS V14.00,2013-03-01 22:11:00,
2013-03-01 14:12:00,61.2,20.9,30.36,East,90,2.9,2.9,21,0.00,,,0.00,VWS V14.00,2013-03-01 22:12:00,
2013-03-01 14:13:00,61.3,24.3,30.36,East,90,2.9,2.9,24,0.00,,,0.00,VWS V14.00,2013-03-01 22:13:00,
2013-03-01 14:14:00,61.3,24.3,30.36,East,90,7.4,7.4,24,0.00,,,0.00,VWS V14.00,2013-03-01 22:14:00,
2013-03-01 14:15:00,61.3,24.3,30.36,ESE,112,3.1,7.4,24,0.00,,,0.00,VWS V14.00,2013-03-01 22:15:00,
2013-03-01 14:16:00,61.2,24.1,30.36,WNW,292,2.9,3.1,24,0.00,,,0.00,VWS V14.00,2013-03-01 22:16:00,
2013-03-01 14:17:00,61.2,24.1,30.36,ESE,112,1.1,2.9,24,0.00,,,0.00,VWS V14.00,2013-03-01 22:17:00,
2013-03-01 14:18:00,61.3,24.3,30.36,SE,135,3.1,3.1,24,0.00,,,0.00,VWS V14.00,2013-03-01 22:18:00,
2013-03-01 14:19:00,61.3,24.3,30.36,South,180,3.1,3.1,24,0.00,,,0.00,VWS V14.00,2013-03-01 22:19:00,
2013-03-01 14:20:00,61.0,24.0,30.36,ENE,68,3.4,3.4,24,0.00,,,0.00,VWS V14.00,2013-03-01 22:20:00,
2013-03-01 14:21:00,61.0,24.0,30.36,ENE,68,3.4,3.4,24,0.00,,,0.00,VWS V14.00,2013-03-01 22:21:00,
2013-03-01 14:22:00,61.0,24.0,30.36,East,90,2.9,4.3,24,0.00,,,0.00,VWS V14.00,2013-03-01 22:22:00,
2013-03-01 14:23:00,60.8,23.8,30.36,East,90,2.9,2.9,24,0.00,,,0.00,VWS V14.00,2013-03-01 22:23:00,
2013-03-01 14:24:00,60.8,23.8,30.36,SSE,158,3.1,3.6,24,0.00,,,0.00,VWS V14.00,2013-03-01 22:24:00,
2013-03-01 14:25:00,61.0,24.0,30.36,SSE,158,3.1,3.1,24,0.00,,,0.00,VWS V14.00,2013-03-01 22:25:00,
2013-03-01 14:26:00,61.0,24.0,30.36,SE,135,2.7,3.1,24,0.00,,,0.00,VWS V14.00,2013-03-01 22:26:00,
2013-03-01 14:27:00,61.0,24.0,30.36,SSW,202,3.1,3.1,24,0.00,,,0.00,VWS V14.00,2013-03-01 22:27:00,
2013-03-01 14:28:00,61.0,24.0,30.36,SSW,202,3.1,3.1,24,0.00,,,0.00,VWS V14.00,2013-03-01 22:28:00,
2013-03-01 14:29:00,61.0,24.0,30.36,ESE,112,3.8,4.7,24,0.00,,,0.00,VWS V14.00,2013-03-01 22:29:00,
2013-03-01 14:30:00,61.0,24.0,30.36,ESE,112,3.8,4.7,24,0.00,,,0.00,VWS V14.00,2013-03-01 22:30:00,
2013-03-01 14:31:00,61.0,24.0,30.36,SSE,158,3.4,3.8,24,0.00,,,0.00,VWS V14.00,2013-03-01 22:31:00,
2013-03-01 14:32:00,60.8,23.8,30.36,East,90,2.9,3.4,24,0.00,,,0.00,VWS V14.00,2013-03-01 22:32:00,
2013-03-01 14:33:00,60.8,23.8,30.36,ESE,112,3.1,3.1,24,0.00,,,0.00,VWS V14.00,2013-03-01 22:33:00,
2013-03-01 14:34:00,60.8,23.8,30.36,ENE,68,2.5,2.5,24,0.00,,,0.00,VWS V14.00,2013-03-01 22:34:00,
2013-03-01 14:35:00,60.8,23.8,30.36,ENE,68,2.5,2.5,24,0.00,,,0.00,VWS V14.00,2013-03-01 22:35:00,
2013-03-01 14:36:00,60.6,23.6,30.36,SE,135,3.6,3.6,24,0.00,,,0.00,VWS V14.00,2013-03-01 22:36:00,
2013-03-01 14:37:00,60.6,23.6,30.36,SE,135,3.6,3.6,24,0.00,,,0.00,VWS V14.00,2013-03-01 22:37:00,
2013-03-01 14:38:00,60.6,23.6,30.36,East,90,3.6,6.0,24,0.00,,,0.00,VWS V14.00,2013-03-01 22:38:00,
2013-03-01 14:39:00,60.8,23.8,30.36,East,90,2.5,3.6,24,0.00,,,0.00,VWS V14.00,2013-03-01 22:39:00,
2013-03-01 14:40:00,60.8,23.8,30.36,East,90,2.7,2.7,24,0.00,,,0.00,VWS V14.00,2013-03-01 22:40:00,
2013-03-01 14:41:00,60.6,23.6,30.36,East,90,5.8,5.8,24,0.00,,,0.00,VWS V14.00,2013-03-01 22:41:00,
2013-03-01 14:42:00,60.6,23.6,30.36,ESE,112,1.6,5.8,24,0.00,,,0.00,VWS V14.00,2013-03-01 22:42:00,
2013-03-01 14:43:00,60.8,23.8,30.36,East,90,4.3,4.3,24,0.00,,,0.00,VWS V14.00,2013-03-01 22:43:00,
2013-03-01 14:44:00,60.8,23.8,30.36,East,90,2.0,2.0,24,0.00,,,0.00,VWS V14.00,2013-03-01 22:44:00,
2013-03-01 14:45:00,60.8,23.8,30.36,East,90,2.0,2.0,24,0.00,,,0.00,VWS V14.00,2013-03-01 22:45:00,
2013-03-01 14:46:00,61.0,24.0,30.36,East,90,4.0,4.0,24,0.00,,,0.00,VWS V14.00,2013-03-01 22:46:00,
2013-03-01 14:47:00,61.0,24.0,30.36,East,90,6.3,6.3,24,0.00,,,0.00,VWS V14.00,2013-03-01 22:47:00,
2013-03-01 14:48:00,61.0,24.0,30.36,East,90,5.4,6.3,24,0.00,,,0.00,VWS V14.00,2013-03-01 22:48:00,
2013-03-01 14:49:00,61.0,24.0,30.36,SE,135,5.8,5.8,24,0.00,,,0.00,VWS V14.00,2013-03-01 22:49:00,
2013-03-01 14:50:00,60.8,23.8,30.36,East,90,4.9,5.8,24,0.00,,,0.00,VWS V14.00,2013-03-01 22:50:00,
2013-03-01 14:51:00,60.8,23.8,30.36,East,90,4.9,4.9,24,0.00,,,0.00,VWS V14.00,2013-03-01 22:51:00,
2013-03-01 14:52:00,60.8,23.8,30.36,East,90,3.8,4.9,24,0.00,,,0.00,VWS V14.00,2013-03-01 22:52:00,
2013-03-01 14:53:00,60.6,23.6,30.36,East,90,8.7,8.7,24,0.00,,,0.00,VWS V14.00,2013-03-01 22:53:00,
2013-03-01 14:54:00,60.6,23.6,30.36,East,90,3.4,8.7,24,0.00,,,0.00,VWS V14.00,2013-03-01 22:54:00,
2013-03-01 14:55:00,60.8,23.8,30.36,East,90,5.4,5.4,24,0.00,,,0.00,VWS V14.00,2013-03-01 22:55:00,
2013-03-01 14:56:00,60.8,23.8,30.36,NNE,22,2.5,5.4,24,0.00,,,0.00,VWS V14.00,2013-03-01 22:56:00,
2013-03-01 14:57:00,61.0,24.0,30.36,East,90,5.4,5.4,24,0.00,,,0.00,VWS V14.00,2013-03-01 22:57:00,
2013-03-01 14:58:00,61.0,24.0,30.36,East,90,2.9,5.4,24,0.00,,,0.00,VWS V14.00,2013-03-01 22:58:00,
2013-03-01 14:59:00,60.8,23.8,30.36,East,90,5.8,5.8,24,0.00,,,0.00,VWS V14.00,2013-03-01 22:59:00,
2013-03-01 15:00:00,60.8,23.8,30.36,East,90,3.4,5.8,24,0.00,,,0.00,VWS V14.00,2013-03-01 23:00:00,
2013-03-01 15:01:00,60.6,23.6,30.36,East,90,4.0,4.0,24,0.00,,,0.00,VWS V14.00,2013-03-01 23:01:00,
2013-03-01 15:02:00,60.6,23.6,30.36,SE,135,3.8,4.0,24,0.00,,,0.00,VWS V14.00,2013-03-01 23:02:00,
2013-03-01 15:03:00,60.6,23.6,30.36,SE,135,0.9,3.8,24,0.00,,,0.00,VWS V14.00,2013-03-01 23:03:00,
2013-03-01 15:04:00,60.4,23.5,30.36,ESE,112,2.5,2.5,24,0.00,,,0.00,VWS V14.00,2013-03-01 23:04:00,
2013-03-01 15:05:00,60.4,23.5,30.36,ESE,112,2.5,2.5,24,0.00,,,0.00,VWS V14.00,2013-03-01 23:05:00,
2013-03-01 15:06:00,60.4,23.5,30.36,East,90,6.3,6.3,24,0.00,,,0.00,VWS V14.00,2013-03-01 23:06:00,
2013-03-01 15:07:00,60.4,23.5,30.36,SE,135,3.1,6.3,24,0.00,,,0.00,VWS V14.00,2013-03-01 23:07:00,
2013-03-01 15:08:00,60.4,23.5,30.36,ENE,68,2.2,3.1,24,0.00,,,0.00,VWS V14.00,2013-03-01 23:08:00,
2013-03-01 15:09:00,60.3,23.4,30.36,East,90,5.4,5.4,24,0.00,,,0.00,VWS V14.00,2013-03-01 23:09:00,
2013-03-01 15:10:00,60.3,23.4,30.36,East,90,5.4,5.4,24,0.00,,,0.00,VWS V14.00,2013-03-01 23:10:00,
2013-03-01 15:11:00,59.9,23.0,30.33,East,90,4.9,4.9,24,0.00,,,0.00,VWS V14.00,2013-03-01 23:11:00,
2013-03-01 15:12:00,59.9,23.0,30.33,East,90,7.4,7.4,24,0.00,,,0.00,VWS V14.00,2013-03-01 23:12:00,
2013-03-01 15:13:00,59.9,23.0,30.33,East,90,1.3,7.4,24,0.00,,,0.00,VWS V14.00,2013-03-01 23:13:00,
2013-03-01 15:14:00,59.9,23.0,30.33,SE,135,2.0,2.0,24,0.00,,,0.00,VWS V14.00,2013-03-01 23:14:00,
2013-03-01 15:15:00,59.4,22.6,30.33,East,90,2.9,2.9,24,0.00,,,0.00,VWS V14.00,2013-03-01 23:15:00,
2013-03-01 15:17:00,59.4,22.6,30.33,ENE,68,0.0,3.4,24,0.00,,,0.00,VWS V14.00,2013-03-01 23:17:00,
2013-03-01 15:18:00,59.7,22.9,30.33,ENE,68,0.0,0.0,24,0.00,,,0.00,VWS V14.00,2013-03-01 23:18:00,
2013-03-01 15:19:00,59.7,22.9,30.36,ENE,68,0.0,0.0,24,0.00,,,0.00,VWS V14.00,2013-03-01 23:19:00,
2013-03-01 15:20:00,60.1,23.2,30.36,ENE,68,0.0,0.0,24,0.00,,,0.00,VWS V14.00,2013-03-01 23:20:00,
2013-03-01 15:21:00,60.1,23.2,30.36,ENE,68,0.0,0.0,24,0.00,,,0.00,VWS V14.00,2013-03-01 23:21:00,
2013-03-01 15:22:00,59.9,23.0,30.36,ENE,68,0.0,0.0,24,0.00,,,0.00,VWS V14.00,2013-03-01 23:22:00,
2013-03-01 15:23:00,60.3,23.4,30.36,ENE,68,0.0,0.0,24,0.00,,,0.00,VWS V14.00,2013-03-01 23:23:00,
2013-03-01 15:24:00,60.4,23.5,30.36,ENE,68,0.0,0.0,24,0.00,,,0.00,VWS V14.00,2013-03-01 23:24:00,
2013-03-01 15:25:00,60.4,23.5,30.36,ENE,68,0.0,0.0,24,0.00,,,0.00,VWS V14.00,2013-03-01 23:25:00,
2013-03-01 15:26:00,60.1,23.2,30.36,East,90,3.1,3.1,24,0.00,,,0.00,VWS V14.00,2013-03-01 23:26:00,
2013-03-01 15:27:00,60.1,23.2,30.36,ESE,112,5.8,5.8,24,0.00,,,0.00,VWS V14.00,2013-03-01 23:27:00,
2013-03-01 15:28:00,59.9,23.0,30.36,SE,135,2.0,5.8,24,0.00,,,0.00,VWS V14.00,2013-03-01 23:28:00,
2013-03-01 15:29:00,59.9,23.0,30.36,SE,135,2.0,2.0,24,0.00,,,0.00,VWS V14.00,2013-03-01 23:29:00,
2013-03-01 15:30:00,59.5,22.7,30.36,SE,135,2.7,2.7,24,0.00,,,0.00,VWS V14.00,2013-03-01 23:30:00,
2013-03-01 15:31:00,59.4,22.6,30.36,East,90,4.5,4.5,24,0.00,,,0.00,VWS V14.00,2013-03-01 23:31:00,
2013-03-01 15:32:00,59.4,22.6,30.36,East,90,4.5,4.5,24,0.00,,,0.00,VWS V14.00,2013-03-01 23:32:00,
2013-03-01 15:33:00,59.4,22.6,30.36,East,90,2.0,4.5,24,0.00,,,0.00,VWS V14.00,2013-03-01 23:33:00,
2013-03-01 15:34:00,59.2,22.4,30.33,ESE,112,2.9,2.9,24,0.00,,,0.00,VWS V14.00,2013-03-01 23:34:00,
2013-03-01 15:35:00,59.2,22.4,30.33,ESE,112,3.8,3.8,24,0.00,,,0.00,VWS V14.00,2013-03-01 23:35:00,
2013-03-01 15:36:00,59.4,22.6,30.33,WNW,292,4.0,4.0,24,0.00,,,0.00,VWS V14.00,2013-03-01 23:36:00,
2013-03-01 15:37:00,59.4,22.6,30.33,South,180,0.9,4.0,24,0.00,,,0.00,VWS V14.00,2013-03-01 23:37:00,
2013-03-01 15:38:00,59.0,22.3,30.33,ESE,112,4.0,4.0,24,0.00,,,0.00,VWS V14.00,2013-03-01 23:38:00,
2013-03-01 15:39:00,59.2,22.4,30.33,East,90,6.0,6.0,24,0.00,,,0.00,VWS V14.00,2013-03-01 23:39:00,
2013-03-01 15:40:00,59.2,22.4,30.33,ESE,112,2.0,6.0,24,0.00,,,0.00,VWS V14.00,2013-03-01 23:40:00,
2013-03-01 15:41:00,59.2,22.4,30.33,East,90,3.6,3.6,24,0.00,,,0.00,VWS V14.00,2013-03-01 23:41:00,
2013-03-01 15:42:00,59.2,22.4,30.33,ESE,112,6.3,6.3,24,0.00,,,0.00,VWS V14.00,2013-03-01 23:42:00,
2013-03-01 15:43:00,59.4,22.6,30.33,East,90,3.8,6.3,24,0.00,,,0.00,VWS V14.00,2013-03-01 23:43:00,
2013-03-01 15:44:00,59.4,22.6,30.33,ESE,112,5.6,5.6,24,0.00,,,0.00,VWS V14.00,2013-03-01 23:44:00,
2013-03-01 15:45:00,59.2,22.4,30.33,SE,135,6.0,6.0,24,0.00,,,0.00,VWS V14.00,2013-03-01 23:45:00,
2013-03-01 15:46:00,59.2,22.4,30.33,SE,135,6.0,6.0,24,0.00,,,0.00,VWS V14.00,2013-03-01 23:46:00,
2013-03-01 15:47:00,59.2,22.4,30.33,East,90,2.0,6.0,24,0.00,,,0.00,VWS V14.00,2013-03-01 23:47:00,
2013-03-01 15:48:00,59.0,22.3,30.33,East,90,3.6,3.6,24,0.00,,,0.00,VWS V14.00,2013-03-01 23:48:00,
2013-03-01 15:49:00,59.0,22.3,30.33,East,90,4.0,4.0,24,0.00,,,0.00,VWS V14.00,2013-03-01 23:49:00,
2013-03-01 15:50:00,59.2,22.4,30.33,East,90,1.6,1.6,24,0.00,,,0.00,VWS V14.00,2013-03-01 23:50:00,
2013-03-01 15:51:00,59.2,22.4,30.33,East,90,1.6,1.6,24,0.00,,,0.00,VWS V14.00,2013-03-01 23:51:00,
2013-03-01 15:52:00,59.2,22.4,30.33,East,90,2.7,2.7,24,0.00,,,0.00,VWS V14.00,2013-03-01 23:52:00,
2013-03-01 15:53:00,59.2,22.4,30.33,SSE,158,3.1,3.1,24,0.00,,,0.00,VWS V14.00,2013-03-01 23:53:00,
2013-03-01 15:54:00,58.6,22.0,30.33,ESE,112,4.3,4.3,24,0.00,,,0.00,VWS V14.00,2013-03-01 23:54:00,
2013-03-01 15:55:00,58.3,21.7,30.33,NE,45,5.8,5.8,24,0.00,,,0.00,VWS V14.00,2013-03-01 23:55:00,
2013-03-01 15:56:00,58.3,21.7,30.33,East,90,0.0,5.8,24,0.00,,,0.00,VWS V14.00,2013-03-01 23:56:00,
2013-03-01 15:57:00,58.1,21.5,30.33,NNE,22,6.0,6.0,24,0.00,,,0.00,VWS V14.00,2013-03-01 23:57:00,
2013-03-01 15:58:00,58.1,21.5,30.33,East,90,4.0,6.0,24,0.00,,,0.00,VWS V14.00,2013-03-01 23:58:00,
2013-03-01 15:59:00,57.7,21.2,30.33,ESE,112,2.2,4.0,24,0.00,,,0.00,VWS V14.00,2013-03-01 23:59:00,
2013-03-01 16:00:00,57.6,21.1,30.33,ESE,112,4.0,4.0,24,0.00,,,0.00,VWS V14.00,2013-03-02 00:00:00,
2013-03-01 16:01:00,57.6,21.1,30.33,East,90,3.6,4.0,24,0.00,,,0.00,VWS V14.00,2013-03-02 00:01:00,
2013-03-01 16:02:00,57.7,21.2,30.33,SSE,158,2.0,3.6,24,0.00,,,0.00,VWS V14.00,2013-03-02 00:02:00,
2013-03-01 16:03:00,57.7,21.2,30.33,ESE,112,1.3,2.0,24,0.00,,,0.00,VWS V14.00,2013-03-02 00:03:00,
2013-03-01 16:04:00,57.4,20.9,30.33,SSE,158,2.0,2.0,24,0.00,,,0.00,VWS V14.00,2013-03-02 00:04:00,
2013-03-01 16:05:00,57.4,20.9,30.33,East,90,3.6,3.6,24,0.00,,,0.00,VWS V14.00,2013-03-02 00:05:00,
2013-03-01 16:06:00,57.4,20.9,30.33,SSE,158,1.6,3.6,24,0.00,,,0.00,VWS V14.00,2013-03-02 00:06:00,
2013-03-01 16:07:00,57.4,20.9,30.33,ESE,112,1.6,1.6,24,0.00,,,0.00,VWS V14.00,2013-03-02 00:07:00,
2013-03-01 16:08:00,57.4,20.9,30.33,SE,135,6.0,6.0,24,0.00,,,0.00,VWS V14.00,2013-03-02 00:08:00,
2013-03-01 16:09:00,57.0,21.6,30.33,NNE,22,0.0,6.0,25,0.00,,,0.00,VWS V14.00,2013-03-02 00:09:00,
2013-03-01 16:10:00,57.0,21.6,30.33,East,90,0.0,1.6,25,0.00,,,0.00,VWS V14.00,2013-03-02 00:10:00,
2013-03-01 16:11:00,56.8,21.4,30.33,East,90,0.0,1.6,25,0.00,,,0.00,VWS V14.00,2013-03-02 00:11:00,
2013-03-01 16:12:00,56.8,21.4,30.33,East,90,3.1,3.1,25,0.00,,,0.00,VWS V14.00,2013-03-02 00:12:00,
2013-03-01 16:13:00,57.0,21.6,30.33,SE,135,1.6,3.1,25,0.00,,,0.00,VWS V14.00,2013-03-02 00:13:00,
2013-03-01 16:14:00,57.0,21.6,30.33,SE,135,1.6,1.6,25,0.00,,,0.00,VWS V14.00,2013-03-02 00:14:00,
2013-03-01 16:15:00,56.5,21.1,30.33,SSE,158,1.1,1.1,25,0.00,,,0.00,VWS V14.00,2013-03-02 00:15:00,
2013-03-01 16:16:00,56.3,21.0,30.33,SE,135,2.0,2.0,25,0.00,,,0.00,VWS V14.00,2013-03-02 00:16:00,
2013-03-01 16:17:00,56.3,21.0,30.33,ESE,112,3.6,3.6,25,0.00,,,0.00,VWS V14.00,2013-03-02 00:17:00,
2013-03-01 16:18:00,56.3,21.0,30.33,East,90,2.5,3.6,25,0.00,,,0.00,VWS V14.00,2013-03-02 00:18:00,
2013-03-01 16:19:00,56.3,21.0,30.33,West,270,1.6,2.5,25,0.00,,,0.00,VWS V14.00,2013-03-02 00:19:00,
2013-03-01 16:20:00,56.1,20.8,30.33,East,90,0.0,0.0,25,0.00,,,0.00,VWS V14.00,2013-03-02 00:20:00,
2013-03-01 16:21:00,56.1,20.8,30.33,SE,135,3.1,3.1,25,0.00,,,0.00,VWS V14.00,2013-03-02 00:21:00,
2013-03-01 16:22:00,55.9,20.6,30.33,East,90,2.2,3.1,25,0.00,,,0.00,VWS V14.00,2013-03-02 00:22:00,
2013-03-01 16:23:00,55.9,20.6,30.33,SSE,158,1.3,2.2,25,0.00,,,0.00,VWS V14.00,2013-03-02 00:23:00,
2013-03-01 16:24:00,55.6,20.3,30.33,SE,135,3.8,3.8,25,0.00,,,0.00,VWS V14.00,2013-03-02 00:24:00,
2013-03-01 16:25:00,55.4,20.2,30.33,SE,135,1.3,3.6,25,0.00,,,0.00,VWS V14.00,2013-03-02 00:25:00,
2013-03-01 16:26:00,55.4,20.2,30.33,SE,135,2.0,3.6,25,0.00,,,0.00,VWS V14.00,2013-03-02 00:26:00,
2013-03-01 16:27:00,55.4,20.2,30.33,SE,135,1.6,2.0,25,0.00,,,0.00,VWS V14.00,2013-03-02 00:27:00,
2013-03-01 16:28:00,55.4,20.2,30.33,SE,135,0.9,1.6,25,0.00,,,0.00,VWS V14.00,2013-03-02 00:28:00,
2013-03-01 16:29:00,55.8,20.5,30.33,SE,135,2.9,2.9,25,0.00,,,0.00,VWS V14.00,2013-03-02 00:29:00,
2013-03-01 16:30:00,55.4,20.2,30.33,ESE,112,2.0,2.9,25,0.00,,,0.00,VWS V14.00,2013-03-02 00:30:00,
2013-03-01 16:31:00,55.4,20.2,30.33,South,180,2.2,2.9,25,0.00,,,0.00,VWS V14.00,2013-03-02 00:31:00,
2013-03-01 16:32:00,55.0,19.9,30.33,East,90,3.4,3.4,25,0.00,,,0.00,VWS V14.00,2013-03-02 00:32:00,
2013-03-01 16:33:00,55.0,19.9,30.33,SE,135,0.0,3.4,25,0.00,,,0.00,VWS V14.00,2013-03-02 00:33:00,
2013-03-01 16:34:00,54.9,19.7,30.33,ESE,112,2.9,2.9,25,0.00,,,0.00,VWS V14.00,2013-03-02 00:34:00,
2013-03-01 16:35:00,54.7,19.6,30.33,East,90,4.0,4.0,25,0.00,,,0.00,VWS V14.00,2013-03-02 00:35:00,
2013-03-01 16:36:00,54.7,19.6,30.33,East,90,4.0,4.0,25,0.00,,,0.00,VWS V14.00,2013-03-02 00:36:00,
2013-03-01 16:37:00,54.7,19.6,30.33,SE,135,0.9,4.0,25,0.00,,,0.00,VWS V14.00,2013-03-02 00:37:00,
2013-03-01 16:38:00,54.1,19.1,30.33,SSE,158,2.5,2.5,25,0.00,,,0.00,VWS V14.00,2013-03-02 00:38:00,
2013-03-01 16:39:00,54.0,19.0,30.33,East,90,4.0,4.0,25,0.00,,,0.00,VWS V14.00,2013-03-02 00:39:00,
2013-03-01 16:40:00,53.6,18.6,30.33,SSE,158,1.3,1.3,25,0.00,,,0.00,VWS V14.00,2013-03-02 00:40:00,
2013-03-01 16:41:00,53.6,18.6,30.33,SSW,202,2.0,2.0,25,0.00,,,0.00,VWS V14.00,2013-03-02 00:41:00,
2013-03-01 16:42:00,53.6,18.6,30.33,SSE,158,1.1,2.0,25,0.00,,,0.00,VWS V14.00,2013-03-02 00:42:00,
2013-03-01 16:43:00,53.1,19.1,30.33,SSE,158,1.1,1.1,26,0.00,,,0.00,VWS V14.00,2013-03-02 00:43:00,
2013-03-01 16:44:00,53.1,19.1,30.33,SSE,158,1.1,1.1,26,0.00,,,0.00,VWS V14.00,2013-03-02 00:44:00,
2013-03-01 16:45:00,52.9,19.0,30.33,South,180,3.4,3.4,26,0.00,,,0.00,VWS V14.00,2013-03-02 00:45:00,
2013-03-01 16:46:00,52.9,19.0,30.33,SE,135,1.6,3.4,26,0.00,,,0.00,VWS V14.00,2013-03-02 00:46:00,
2013-03-01 16:47:00,52.3,18.5,30.33,WSW,248,3.4,3.4,26,0.00,,,0.00,VWS V14.00,2013-03-02 00:47:00,
2013-03-01 16:48:00,52.0,18.2,30.33,ENE,68,4.9,4.9,26,0.00,,,0.00,VWS V14.00,2013-03-02 00:48:00,
2013-03-01 16:49:00,52.0,18.2,30.33,ESE,112,1.1,4.9,26,0.00,,,0.00,VWS V14.00,2013-03-02 00:49:00,
2013-03-01 16:50:00,52.2,18.3,30.33,SE,135,2.0,3.4,26,0.00,,,0.00,VWS V14.00,2013-03-02 00:50:00,
2013-03-01 16:51:00,52.2,18.3,30.33,SE,135,2.0,3.4,26,0.00,,,0.00,VWS V14.00,2013-03-02 00:51:00,
2013-03-01 16:52:00,51.8,18.0,30.33,South,180,2.2,2.2,26,0.00,,,0.00,VWS V14.00,2013-03-02 00:52:00,
2013-03-01 16:53:00,51.8,18.0,30.33,SE,135,0.0,2.2,26,0.00,,,0.00,VWS V14.00,2013-03-02 00:53:00,
2013-03-01 16:54:00,51.6,17.9,30.33,West,270,0.0,0.9,26,0.00,,,0.00,VWS V14.00,2013-03-02 00:54:00,
2013-03-01 16:55:00,51.6,17.9,30.33,NE,45,1.6,1.6,26,0.00,,,0.00,VWS V14.00,2013-03-02 00:55:00,
2013-03-01 16:56:00,51.6,17.9,30.33,ESE,112,0.9,1.6,26,0.00,,,0.00,VWS V14.00,2013-03-02 00:56:00,
2013-03-01 16:57:00,51.4,17.7,30.33,SE,135,1.1,1.1,26,0.00,,,0.00,VWS V14.00,2013-03-02 00:57:00,
2013-03-01 16:58:00,51.4,17.7,30.33,SE,135,0.0,1.1,26,0.00,,,0.00,VWS V14.00,2013-03-02 00:58:00,
2013-03-01 16:59:00,50.9,17.2,30.33,ESE,112,0.0,0.0,26,0.00,,,0.00,VWS V14.00,2013-03-02 00:59:00,
2013-03-01 17:00:00,50.9,17.2,30.33,SSE,158,4.9,4.9,26,0.00,,,0.00,VWS V14.00,2013-03-02 01:00:00,
2013-03-01 17:01:00,50.9,17.2,30.33,SE,135,3.4,4.9,26,0.00,,,0.00,VWS V14.00,2013-03-02 01:01:00,
2013-03-01 17:02:00,51.3,17.6,30.33,ENE,68,1.6,3.4,26,0.00,,,0.00,VWS V14.00,2013-03-02 01:02:00,
2013-03-01 17:03:00,51.3,17.6,30.33,SSE,158,3.4,3.4,26,0.00,,,0.00,VWS V14.00,2013-03-02 01:03:00,
2013-03-01 17:04:00,50.9,17.2,30.33,East,90,0.0,3.4,26,0.00,,,0.00,VWS V14.00,2013-03-02 01:04:00,
2013-03-01 17:05:00,50.7,17.1,30.33,SE,135,0.0,2.0,26,0.00,,,0.00,VWS V14.00,2013-03-02 01:05:00,
2013-03-01 17:06:00,50.7,17.1,30.33,SE,135,0.0,2.0,26,0.00,,,0.00,VWS V14.00,2013-03-02 01:06:00,
2013-03-01 17:07:00,50.7,17.1,30.33,SSE,158,3.4,3.4,26,0.00,,,0.00,VWS V14.00,2013-03-02 01:07:00,
2013-03-01 17:08:00,50.5,17.0,30.33,East,90,2.2,3.4,26,0.00,,,0.00,VWS V14.00,2013-03-02 01:08:00,
2013-03-01 17:09:00,50.9,17.2,30.33,East,90,2.2,2.2,26,0.00,,,0.00,VWS V14.00,2013-03-02 01:09:00,
2013-03-01 17:10:00,50.5,17.0,30.33,SSE,158,1.1,1.1,26,0.00,,,0.00,VWS V14.00,2013-03-02 01:10:00,
2013-03-01 17:11:00,50.5,17.0,30.33,ESE,112,3.6,3.6,26,0.00,,,0.00,VWS V14.00,2013-03-02 01:11:00,
2013-03-01 17:12:00,50.5,17.0,30.33,SSW,202,2.5,3.6,26,0.00,,,0.00,VWS V14.00,2013-03-02 01:12:00,
2013-03-01 17:13:00,50.7,17.1,30.33,ESE,112,2.9,2.9,26,0.00,,,0.00,VWS V14.00,2013-03-02 01:13:00,
2013-03-01 17:14:00,50.7,17.1,30.33,South,180,1.1,2.9,26,0.00,,,0.00,VWS V14.00,2013-03-02 01:14:00,
2013-03-01 17:15:00,50.5,17.0,30.33,SSE,158,0.0,1.1,26,0.00,,,0.00,VWS V14.00,2013-03-02 01:15:00,
2013-03-01 17:16:00,50.5,17.0,30.33,SE,135,2.2,2.2,26,0.00,,,0.00,VWS V14.00,2013-03-02 01:16:00,
2013-03-01 17:17:00,49.8,17.2,30.33,South,180,2.9,2.9,27,0.00,,,0.00,VWS V14.00,2013-03-02 01:17:00,
2013-03-01 17:18:00,49.6,17.0,30.33,East,90,0.0,2.9,27,0.00,,,0.00,VWS V14.00,2013-03-02 01:18:00,
2013-03-01 17:19:00,49.6,17.0,30.33,East,90,0.0,0.0,27,0.00,,,0.00,VWS V14.00,2013-03-02 01:19:00,
2013-03-01 17:20:00,50.0,16.5,30.33,East,90,0.0,0.0,26,0.00,,,0.00,VWS V14.00,2013-03-02 01:20:00,
2013-03-01 17:21:00,50.0,16.5,30.33,WNW,292,1.6,1.6,26,0.00,,,0.00,VWS V14.00,2013-03-02 01:21:00,
2013-03-01 17:22:00,50.2,16.6,30.33,SE,135,1.1,2.0,26,0.00,,,0.00,VWS V14.00,2013-03-02 01:22:00,
2013-03-01 17:23:00,50.2,16.6,30.33,SE,135,1.1,1.1,26,0.00,,,0.00,VWS V14.00,2013-03-02 01:23:00,
2013-03-01 17:24:00,50.0,16.5,30.33,SW,225,2.7,4.5,26,0.00,,,0.00,VWS V14.00,2013-03-02 01:24:00,
2013-03-01 17:25:00,49.8,17.2,30.33,ESE,112,2.5,2.5,27,0.00,,,0.00,VWS V14.00,2013-03-02 01:25:00,
2013-03-01 17:26:00,49.8,17.2,30.33,South,180,0.0,2.5,27,0.00,,,0.00,VWS V14.00,2013-03-02 01:26:00,
2013-03-01 17:27:00,49.5,16.9,30.33,SSE,158,0.0,0.0,27,0.00,,,0.00,VWS V14.00,2013-03-02 01:27:00,
2013-03-01 17:28:00,49.5,16.9,30.33,East,90,5.8,5.8,27,0.00,,,0.00,VWS V14.00,2013-03-02 01:28:00,
2013-03-01 17:29:00,49.5,16.9,30.33,ESE,112,1.3,5.8,27,0.00,,,0.00,VWS V14.00,2013-03-02 01:29:00,
2013-03-01 17:30:00,49.5,16.9,30.33,SE,135,1.3,1.3,27,0.00,,,0.00,VWS V14.00,2013-03-02 01:30:00,
2013-03-01 17:31:00,49.3,16.7,30.33,NE,45,0.9,1.3,27,0.00,,,0.00,VWS V14.00,2013-03-02 01:31:00,
2013-03-01 17:32:00,49.1,16.6,30.33,NE,45,0.9,0.9,27,0.00,,,0.00,VWS V14.00,2013-03-02 01:32:00,
2013-03-01 17:33:00,49.1,16.6,30.33,South,180,1.3,1.3,27,0.00,,,0.00,VWS V14.00,2013-03-02 01:33:00,
2013-03-01 17:34:00,48.9,16.4,30.33,South,180,1.3,1.3,27,0.00,,,0.00,VWS V14.00,2013-03-02 01:34:00,
2013-03-01 17:35:00,48.9,16.4,30.33,South,180,1.3,1.3,27,0.00,,,0.00,VWS V14.00,2013-03-02 01:35:00,
2013-03-01 17:36:00,48.7,16.3,30.33,SE,135,1.3,1.3,27,0.00,,,0.00,VWS V14.00,2013-03-02 01:36:00,
2013-03-01 17:37:00,48.7,16.3,30.33,SE,135,2.2,2.2,27,0.00,,,0.00,VWS V14.00,2013-03-02 01:37:00,
2013-03-01 17:38:00,48.6,16.1,30.33,East,90,3.1,3.1,27,0.00,,,0.00,VWS V14.00,2013-03-02 01:38:00,
2013-03-01 17:39:00,48.6,16.1,30.33,East,90,3.1,3.1,27,0.00,,,0.00,VWS V14.00,2013-03-02 01:39:00,
2013-03-01 17:40:00,49.1,16.6,30.33,North,0,2.7,3.1,27,0.00,,,0.00,VWS V14.00,2013-03-02 01:40:00,
2013-03-01 17:41:00,48.7,16.3,30.33,North,0,2.7,2.7,27,0.00,,,0.00,VWS V14.00,2013-03-02 01:41:00,
2013-03-01 17:42:00,48.7,16.3,30.33,WSW,248,1.3,1.3,27,0.00,,,0.00,VWS V14.00,2013-03-02 01:42:00,
2013-03-01 17:43:00,48.2,15.8,30.33,East,90,4.7,4.7,27,0.00,,,0.00,VWS V14.00,2013-03-02 01:43:00,
2013-03-01 17:44:00,48.2,15.8,30.33,SSW,202,2.0,4.7,27,0.00,,,0.00,VWS V14.00,2013-03-02 01:44:00,
2013-03-01 17:45:00,48.2,15.8,30.33,SE,135,1.6,2.0,27,0.00,,,0.00,VWS V14.00,2013-03-02 01:45:00,
2013-03-01 17:46:00,48.2,15.8,30.33,SE,135,3.6,3.6,27,0.00,,,0.00,VWS V14.00,2013-03-02 01:46:00,
2013-03-01 17:47:00,48.4,16.0,30.33,SSE,158,2.9,3.6,27,0.00,,,0.00,VWS V14.00,2013-03-02 01:47:00,
2013-03-01 17:48:00,48.0,15.6,30.33,NNE,22,0.0,2.9,27,0.00,,,0.00,VWS V14.00,2013-03-02 01:48:00,
2013-03-01 17:49:00,48.0,15.6,30.33,ESE,112,1.6,1.6,27,0.00,,,0.00,VWS V14.00,2013-03-02 01:49:00,
2013-03-01 17:50:00,47.8,15.5,30.33,SSE,158,1.1,2.2,27,0.00,,,0.00,VWS V14.00,2013-03-02 01:50:00,
2013-03-01 17:51:00,47.8,15.5,30.33,SSE,158,1.1,1.1,27,0.00,,,0.00,VWS V14.00,2013-03-02 01:51:00,
2013-03-01 17:52:00,47.5,15.2,30.33,East,90,0.0,2.0,27,0.00,,,0.00,VWS V14.00,2013-03-02 01:52:00,
2013-03-01 17:53:00,47.5,15.2,30.33,East,90,0.0,0.0,27,0.00,,,0.00,VWS V14.00,2013-03-02 01:53:00,
2013-03-01 17:54:00,47.5,15.2,30.33,SW,225,0.0,2.2,27,0.00,,,0.00,VWS V14.00,2013-03-02 01:54:00,
2013-03-01 17:55:00,46.9,15.6,30.33,SSW,202,1.1,1.1,28,0.00,,,0.00,VWS V14.00,2013-03-02 01:55:00,
2013-03-01 17:56:00,46.9,15.6,30.33,South,180,1.6,1.6,28,0.00,,,0.00,VWS V14.00,2013-03-02 01:56:00,
2013-03-01 17:57:00,46.9,15.6,30.33,ESE,112,0.9,1.6,28,0.00,,,0.00,VWS V14.00,2013-03-02 01:57:00,
2013-03-01 17:58:00,46.9,15.6,30.33,SSE,158,1.3,1.3,28,0.00,,,0.00,VWS V14.00,2013-03-02 01:58:00,
2013-03-01 17:59:00,46.9,15.6,30.33,SSE,158,2.2,2.2,28,0.00,,,0.00,VWS V14.00,2013-03-02 01:59:00,
2013-03-01 18:00:00,46.9,15.6,30.33,West,270,2.9,2.9,28,0.00,,,0.00,VWS V14.00,2013-03-02 02:00:00,
2013-03-01 18:01:00,47.1,15.7,30.33,SSE,158,1.6,2.9,28,0.00,,,0.00,VWS V14.00,2013-03-02 02:01:00,
2013-03-01 18:02:00,47.1,15.7,30.33,ENE,68,0.9,1.6,28,0.00,,,0.00,VWS V14.00,2013-03-02 02:02:00,
2013-03-01 18:03:00,47.1,15.7,30.33,ENE,68,0.9,0.9,28,0.00,,,0.00,VWS V14.00,2013-03-02 02:03:00,
2013-03-01 18:04:00,46.6,15.2,30.33,ESE,112,2.5,2.5,28,0.00,,,0.00,VWS V14.00,2013-03-02 02:04:00,
2013-03-01 18:05:00,46.6,15.2,30.33,ESE,112,2.5,2.5,28,0.00,,,0.00,VWS V14.00,2013-03-02 02:05:00,
2013-03-01 18:06:00,46.6,15.2,30.33,ESE,112,2.5,2.5,28,0.00,,,0.00,VWS V14.00,2013-03-02 02:06:00,
2013-03-01 18:07:00,46.6,15.2,30.33,ESE,112,2.5,2.5,28,0.00,,,0.00,VWS V14.00,2013-03-02 02:07:00,
2013-03-01 18:08:00,46.2,14.9,30.33,ESE,112,2.5,2.5,28,0.00,,,0.00,VWS V14.00,2013-03-02 02:08:00,
2013-03-01 18:09:00,46.2,14.9,30.33,ESE,112,2.5,2.5,28,0.00,,,0.00,VWS V14.00,2013-03-02 02:09:00,
2013-03-01 18:10:00,46.4,15.1,30.33,SSE,158,2.0,2.5,28,0.00,,,0.00,VWS V14.00,2013-03-02 02:10:00,
2013-03-01 18:11:00,46.6,15.2,30.33,SSE,158,2.0,2.0,28,0.00,,,0.00,VWS V14.00,2013-03-02 02:11:00,
2013-03-01 18:12:00,46.6,15.2,30.33,SSE,158,2.0,2.0,28,0.00,,,0.00,VWS V14.00,2013-03-02 02:12:00,
2013-03-01 18:13:00,46.4,15.1,30.33,East,90,1.1,2.0,28,0.00,,,0.00,VWS V14.00,2013-03-02 02:13:00,
2013-03-01 18:14:00,46.4,15.1,30.33,ESE,112,2.5,2.5,28,0.00,,,0.00,VWS V14.00,2013-03-02 02:14:00,
2013-03-01 18:15:00,46.0,15.6,30.33,NE,45,1.1,2.5,29,0.00,,,0.00,VWS V14.00,2013-03-02 02:15:00,
2013-03-01 18:16:00,45.9,14.6,30.33,SSE,158,1.1,1.1,28,0.00,,,0.00,VWS V14.00,2013-03-02 02:16:00,
2013-03-01 18:17:00,45.9,14.6,30.33,SSE,158,1.1,1.1,28,0.00,,,0.00,VWS V14.00,2013-03-02 02:17:00,
2013-03-01 18:18:00,45.9,15.4,30.33,SSE,158,0.9,1.1,29,0.00,,,0.00,VWS V14.00,2013-03-02 02:18:00,
2013-03-01 18:19:00,45.9,15.4,30.33,SSE,158,0.9,0.9,29,0.00,,,0.00,VWS V14.00,2013-03-02 02:19:00,
2013-03-01 18:20:00,45.1,14.8,30.33,SSE,158,0.9,0.9,29,0.00,,,0.00,VWS V14.00,2013-03-02 02:20:00,
2013-03-01 18:21:00,45.1,14.8,30.33,SSE,158,0.9,0.9,29,0.00,,,0.00,VWS V14.00,2013-03-02 02:21:00,
2013-03-01 18:22:00,45.1,14.8,30.33,SSE,158,0.9,0.9,29,0.00,,,0.00,VWS V14.00,2013-03-02 02:22:00,
2013-03-01 18:23:00,45.1,14.8,30.33,SSE,158,0.9,0.9,29,0.00,,,0.00,VWS V14.00,2013-03-02 02:23:00,
2013-03-01 18:24:00,45.1,14.8,30.33,SSE,158,0.9,0.9,29,0.00,,,0.00,VWS V14.00,2013-03-02 02:24:00,
2013-03-01 18:25:00,45.9,15.4,30.33,SSE,158,0.9,0.9,29,0.00,,,0.00,VWS V14.00,2013-03-02 02:25:00,
2013-03-01 18:26:00,45.9,15.4,30.33,SSE,158,0.9,0.9,29,0.00,,,0.00,VWS V14.00,2013-03-02 02:26:00,
2013-03-01 18:27:00,45.1,14.8,30.33,SSE,158,0.9,0.9,29,0.00,,,0.00,VWS V14.00,2013-03-02 02:27:00,
2013-03-01 18:28:00,45.1,14.8,30.33,SSE,158,0.9,0.9,29,0.00,,,0.00,VWS V14.00,2013-03-02 02:28:00,
2013-03-01 18:29:00,45.1,14.8,30.33,SSE,158,0.9,0.9,29,0.00,,,0.00,VWS V14.00,2013-03-02 02:29:00,
2013-03-01 18:30:00,45.1,14.8,30.33,SSE,158,0.9,0.9,29,0.00,,,0.00,VWS V14.00,2013-03-02 02:30:00,
2013-03-01 18:31:00,45.1,14.8,30.33,SSE,158,0.9,0.9,29,0.00,,,0.00,VWS V14.00,2013-03-02 02:31:00,
2013-03-01 18:32:00,45.1,14.8,30.33,SSE,158,0.9,0.9,29,0.00,,,0.00,VWS V14.00,2013-03-02 02:32:00,
2013-03-01 18:33:00,45.1,14.8,30.33,ESE,112,0.0,0.9,29,0.00,,,0.00,VWS V14.00,2013-03-02 02:33:00,
2013-03-01 18:34:00,44.8,14.5,30.33,SSE,158,0.9,0.9,29,0.00,,,0.00,VWS V14.00,2013-03-02 02:34:00,
2013-03-01 18:35:00,44.8,14.5,30.33,East,90,0.9,0.9,29,0.00,,,0.00,VWS V14.00,2013-03-02 02:35:00,
2013-03-01 18:36:00,44.4,14.9,30.33,East,90,0.9,0.9,30,0.00,,,0.00,VWS V14.00,2013-03-02 02:36:00,
2013-03-01 18:37:00,44.4,14.9,30.33,SSE,158,0.0,0.9,30,0.00,,,0.00,VWS V14.00,2013-03-02 02:37:00,
2013-03-01 18:38:00,44.6,14.3,30.33,SSE,158,0.0,0.0,29,0.00,,,0.00,VWS V14.00,2013-03-02 02:38:00,
2013-03-01 18:39:00,44.6,14.3,30.33,SE,135,1.3,1.3,29,0.00,,,0.00,VWS V14.00,2013-03-02 02:39:00,
2013-03-01 18:40:00,44.2,14.8,30.33,ESE,112,1.6,1.6,30,0.00,,,0.00,VWS V14.00,2013-03-02 02:40:00,
2013-03-01 18:41:00,44.6,14.3,30.33,SE,135,0.9,1.6,29,0.00,,,0.00,VWS V14.00,2013-03-02 02:41:00,
2013-03-01 18:42:00,44.6,14.3,30.33,SSE,158,0.0,0.9,29,0.00,,,0.00,VWS V14.00,2013-03-02 02:42:00,
2013-03-01 18:43:00,44.1,14.6,30.33,ESE,112,0.0,0.0,30,0.00,,,0.00,VWS V14.00,2013-03-02 02:43:00,
2013-03-01 18:44:00,44.1,14.6,30.33,ESE,112,0.0,0.0,30,0.00,,,0.00,VWS V14.00,2013-03-02 02:44:00,
2013-03-01 18:45:00,44.1,14.6,30.33,ESE,112,2.5,2.5,30,0.00,,,0.00,VWS V14.00,2013-03-02 02:45:00,
2013-03-01 18:46:00,44.8,14.5,30.33,ESE,112,1.3,1.3,29,0.00,,,0.00,VWS V14.00,2013-03-02 02:46:00,
2013-03-01 18:47:00,44.8,14.5,30.33,ESE,112,1.3,1.3,29,0.00,,,0.00,VWS V14.00,2013-03-02 02:47:00,
2013-03-01 18:48:00,45.3,14.9,30.33,East,90,2.5,2.5,29,0.00,,,0.00,VWS V14.00,2013-03-02 02:48:00,
2013-03-01 18:49:00,45.3,14.9,30.36,SSE,158,0.0,2.5,29,0.00,,,0.00,VWS V14.00,2013-03-02 02:49:00,
2013-03-01 18:50:00,45.5,15.1,30.36,SE,135,2.0,2.0,29,0.00,,,0.00,VWS V14.00,2013-03-02 02:50:00,
2013-03-01 18:51:00,45.7,15.3,30.36,East,90,2.7,2.7,29,0.00,,,0.00,VWS V14.00,2013-03-02 02:51:00,
2013-03-01 18:52:00,45.7,15.3,30.36,ESE,112,2.2,2.7,29,0.00,,,0.00,VWS V14.00,2013-03-02 02:52:00,
2013-03-01 18:53:00,45.7,15.3,30.36,ESE,112,0.0,2.2,29,0.00,,,0.00,VWS V14.00,2013-03-02 02:53:00,
2013-03-01 18:54:00,45.3,14.9,30.36,SE,135,0.0,0.0,29,0.00,,,0.00,VWS V14.00,2013-03-02 02:54:00,
2013-03-01 18:55:00,45.1,14.8,30.36,East,90,1.6,1.6,29,0.00,,,0.00,VWS V14.00,2013-03-02 02:55:00,
2013-03-01 18:56:00,45.1,14.8,30.36,East,90,1.6,1.6,29,0.00,,,0.00,VWS V14.00,2013-03-02 02:56:00,
2013-03-01 18:57:00,45.0,14.6,30.36,SSE,158,0.0,1.6,29,0.00,,,0.00,VWS V14.00,2013-03-02 02:57:00,
2013-03-01 18:58:00,45.0,14.6,30.36,SE,135,0.0,0.0,29,0.00,,,0.00,VWS V14.00,2013-03-02 02:58:00,
2013-03-01 18:59:00,44.2,14.8,30.36,ESE,112,0.0,0.0,30,0.00,,,0.00,VWS V14.00,2013-03-02 02:59:00,
2013-03-01 19:00:00,44.2,14.8,30.36,SSE,158,0.0,0.0,30,0.00,,,0.00,VWS V14.00,2013-03-02 03:00:00,
2013-03-01 19:01:00,44.1,14.6,30.36,SSE,158,1.3,1.3,30,0.00,,,0.00,VWS V14.00,2013-03-02 03:01:00,
2013-03-01 19:02:00,44.1,14.6,30.36,SSE,158,1.3,1.3,30,0.00,,,0.00,VWS V14.00,2013-03-02 03:02:00,
2013-03-01 19:03:00,43.7,14.3,30.36,South,180,0.0,2.5,30,0.00,,,0.00,VWS V14.00,2013-03-02 03:03:00,
2013-03-01 19:04:00,43.5,14.2,30.36,SSE,158,0.0,0.0,30,0.00,,,0.00,VWS V14.00,2013-03-02 03:04:00,
2013-03-01 19:05:00,43.5,14.2,30.36,ESE,112,0.0,0.0,30,0.00,,,0.00,VWS V14.00,2013-03-02 03:05:00,
2013-03-01 19:06:00,43.3,14.0,30.36,ESE,112,0.0,0.0,30,0.00,,,0.00,VWS V14.00,2013-03-02 03:06:00,
2013-03-01 19:07:00,43.3,14.0,30.36,East,90,0.0,0.0,30,0.00,,,0.00,VWS V14.00,2013-03-02 03:07:00,
2013-03-01 19:08:00,44.1,14.6,30.36,SSE,158,0.0,0.0,30,0.00,,,0.00,VWS V14.00,2013-03-02 03:08:00,
2013-03-01 19:09:00,44.1,14.6,30.36,ESE,112,2.9,2.9,30,0.00,,,0.00,VWS V14.00,2013-03-02 03:09:00,
2013-03-01 19:10:00,44.4,14.9,30.36,ESE,112,2.9,2.9,30,0.00,,,0.00,VWS V14.00,2013-03-02 03:10:00,
2013-03-01 19:11:00,44.4,14.9,30.36,SE,135,1.1,1.1,30,0.00,,,0.00,VWS V14.00,2013-03-02 03:11:00,
2013-03-01 19:12:00,44.4,14.9,30.36,SE,135,1.1,1.1,30,0.00,,,0.00,VWS V14.00,2013-03-02 03:12:00,
2013-03-01 19:13:00,44.1,14.6,30.36,East,90,2.7,2.7,30,0.00,,,0.00,VWS V14.00,2013-03-02 03:13:00,
2013-03-01 19:14:00,44.1,14.6,30.36,East,90,2.2,4.0,30,0.00,,,0.00,VWS V14.00,2013-03-02 03:14:00,
2013-03-01 19:15:00,45.1,15.6,30.36,ESE,112,2.5,2.5,30,0.00,,,0.00,VWS V14.00,2013-03-02 03:15:00,
2013-03-01 19:16:00,45.3,15.7,30.36,ENE,68,2.5,2.5,30,0.00,,,0.00,VWS V14.00,2013-03-02 03:16:00,
2013-03-01 19:17:00,45.3,15.7,30.36,SE,135,2.0,2.5,30,0.00,,,0.00,VWS V14.00,2013-03-02 03:17:00,
2013-03-01 19:18:00,45.9,16.2,30.36,East,90,2.9,2.9,30,0.00,,,0.00,VWS V14.00,2013-03-02 03:18:00,
2013-03-01 19:19:00,45.9,16.2,30.36,SE,135,0.0,2.9,30,0.00,,,0.00,VWS V14.00,2013-03-02 03:19:00,
2013-03-01 19:20:00,45.3,15.7,30.36,SSE,158,0.9,0.9,30,0.00,,,0.00,VWS V14.00,2013-03-02 03:20:00,
2013-03-01 19:21:00,44.2,14.8,30.36,ESE,112,2.7,2.7,30,0.00,,,0.00,VWS V14.00,2013-03-02 03:21:00,
2013-03-01 19:22:00,44.2,14.8,30.36,ESE,112,2.7,2.7,30,0.00,,,0.00,VWS V14.00,2013-03-02 03:22:00,
2013-03-01 19:23:00,44.2,14.8,30.36,ESE,112,0.0,2.7,30,0.00,,,0.00,VWS V14.00,2013-03-02 03:23:00,
2013-03-01 19:24:00,44.4,14.9,30.36,SE,135,1.6,1.6,30,0.00,,,0.00,VWS V14.00,2013-03-02 03:24:00,
2013-03-01 19:25:00,44.4,14.9,30.36,SE,135,0.0,1.6,30,0.00,,,0.00,VWS V14.00,2013-03-02 03:25:00,
2013-03-01 19:26:00,44.2,14.8,30.36,SSE,158,0.0,2.0,30,0.00,,,0.00,VWS V14.00,2013-03-02 03:26:00,
2013-03-01 19:27:00,43.7,15.1,30.36,SSE,158,0.0,2.0,31,0.00,,,0.00,VWS V14.00,2013-03-02 03:27:00,
2013-03-01 19:28:00,43.7,15.1,30.36,SE,135,1.6,1.6,31,0.00,,,0.00,VWS V14.00,2013-03-02 03:28:00,
2013-03-01 19:29:00,44.1,15.4,30.36,ESE,112,2.7,2.7,31,0.00,,,0.00,VWS V14.00,2013-03-02 03:29:00,
2013-03-01 19:30:00,44.1,15.4,30.36,ESE,112,2.7,2.7,31,0.00,,,0.00,VWS V14.00,2013-03-02 03:30:00,
2013-03-01 19:31:00,44.1,15.4,30.36,SE,135,1.6,1.6,31,0.00,,,0.00,VWS V14.00,2013-03-02 03:31:00,
2013-03-01 19:32:00,44.1,15.4,30.36,East,90,2.2,2.2,31,0.00,,,0.00,VWS V14.00,2013-03-02 03:32:00,
2013-03-01 19:33:00,44.2,14.8,30.36,SE,135,2.7,2.7,30,0.00,,,0.00,VWS V14.00,2013-03-02 03:33:00,
2013-03-01 19:34:00,44.2,14.8,30.36,ESE,112,0.0,2.7,30,0.00,,,0.00,VWS V14.00,2013-03-02 03:34:00,
2013-03-01 19:35:00,43.5,14.9,30.36,East,90,0.9,0.9,31,0.00,,,0.00,VWS V14.00,2013-03-02 03:35:00,
2013-03-01 19:36:00,43.7,15.1,30.36,ESE,112,1.6,1.6,31,0.00,,,0.00,VWS V14.00,2013-03-02 03:36:00,
2013-03-01 19:37:00,43.7,15.1,30.36,ESE,112,1.6,1.6,31,0.00,,,0.00,VWS V14.00,2013-03-02 03:37:00,
2013-03-01 19:38:00,43.7,15.1,30.36,South,180,0.0,1.6,31,0.00,,,0.00,VWS V14.00,2013-03-02 03:38:00,
2013-03-01 19:39:00,43.7,15.1,30.36,SE,135,0.0,0.0,31,0.00,,,0.00,VWS V14.00,2013-03-02 03:39:00,
2013-03-01 19:40:00,43.7,15.1,30.36,SE,135,0.0,0.0,31,0.00,,,0.00,VWS V14.00,2013-03-02 03:40:00,
2013-03-01 19:41:00,43.3,14.8,30.36,SE,135,0.0,0.0,31,0.00,,,0.00,VWS V14.00,2013-03-02 03:41:00,
2013-03-01 19:42:00,43.5,14.9,30.36,SE,135,0.0,0.0,31,0.00,,,0.00,VWS V14.00,2013-03-02 03:42:00,
2013-03-01 19:43:00,43.5,14.9,30.36,SE,135,0.0,0.0,31,0.00,,,0.00,VWS V14.00,2013-03-02 03:43:00,
2013-03-01 19:44:00,43.3,14.8,30.36,SSE,158,1.1,1.1,31,0.00,,,0.00,VWS V14.00,2013-03-02 03:44:00,
2013-03-01 19:45:00,43.3,14.8,30.36,SSE,158,1.1,1.1,31,0.00,,,0.00,VWS V14.00,2013-03-02 03:45:00,
2013-03-01 19:46:00,43.3,14.8,30.36,SSE,158,1.1,1.1,31,0.00,,,0.00,VWS V14.00,2013-03-02 03:46:00,
2013-03-01 19:47:00,43.3,14.8,30.36,SSE,158,1.1,1.1,31,0.00,,,0.00,VWS V14.00,2013-03-02 03:47:00,
2013-03-01 19:48:00,43.0,14.4,30.36,SSE,158,1.1,1.1,31,0.00,,,0.00,VWS V14.00,2013-03-02 03:48:00,
2013-03-01 19:49:00,43.5,14.9,30.36,SSE,158,1.1,1.1,31,0.00,,,0.00,VWS V14.00,2013-03-02 03:49:00,
2013-03-01 19:50:00,43.5,14.9,30.36,SSE,158,1.1,1.1,31,0.00,,,0.00,VWS V14.00,2013-03-02 03:50:00,
2013-03-01 19:51:00,43.3,14.8,30.36,SSE,158,0.0,1.1,31,0.00,,,0.00,VWS V14.00,2013-03-02 03:51:00,
2013-03-01 19:52:00,43.3,14.8,30.36,SSE,158,0.0,1.1,31,0.00,,,0.00,VWS V14.00,2013-03-02 03:52:00,
2013-03-01 19:53:00,43.0,14.4,30.36,SSE,158,0.0,0.0,31,0.00,,,0.00,VWS V14.00,2013-03-02 03:53:00,
2013-03-01 19:54:00,43.0,14.4,30.36,SSE,158,0.0,0.0,31,0.00,,,0.00,VWS V14.00,2013-03-02 03:54:00,
2013-03-01 19:55:00,42.8,14.3,30.36,SSE,158,0.0,0.0,31,0.00,,,0.00,VWS V14.00,2013-03-02 03:55:00,
2013-03-01 19:56:00,43.3,14.8,30.36,SSE,158,0.0,0.0,31,0.00,,,0.00,VWS V14.00,2013-03-02 03:56:00,
2013-03-01 19:57:00,43.3,14.8,30.36,SSE,158,1.6,1.6,31,0.00,,,0.00,VWS V14.00,2013-03-02 03:57:00,
2013-03-01 19:58:00,43.7,15.1,30.36,SSE,158,1.6,1.6,31,0.00,,,0.00,VWS V14.00,2013-03-02 03:58:00,
2013-03-01 19:59:00,43.7,15.1,30.36,SSE,158,0.0,1.6,31,0.00,,,0.00,VWS V14.00,2013-03-02 03:59:00,
2013-03-01 20:00:00,43.2,14.6,30.36,SSE,158,0.0,0.0,31,0.00,,,0.00,VWS V14.00,2013-03-02 04:00:00,
2013-03-01 20:01:00,42.6,14.8,30.36,SSE,158,0.0,0.0,32,0.00,,,0.00,VWS V14.00,2013-03-02 04:01:00,
2013-03-01 20:02:00,42.6,14.8,30.36,SSE,158,0.0,0.0,32,0.00,,,0.00,VWS V14.00,2013-03-02 04:02:00,
2013-03-01 20:03:00,42.6,14.8,30.36,ESE,112,1.1,1.1,32,0.00,,,0.00,VWS V14.00,2013-03-02 04:03:00,
2013-03-01 20:04:00,42.6,14.8,30.36,ESE,112,1.1,1.1,32,0.00,,,0.00,VWS V14.00,2013-03-02 04:04:00,
2013-03-01 20:05:00,42.3,14.5,30.36,ESE,112,1.1,1.1,32,0.00,,,0.00,VWS V14.00,2013-03-02 04:05:00,
2013-03-01 20:06:00,42.3,14.5,30.36,ESE,112,1.1,1.1,32,0.00,,,0.00,VWS V14.00,2013-03-02 04:06:00,
2013-03-01 20:07:00,41.9,14.2,30.36,ESE,112,1.1,1.1,32,0.00,,,0.00,VWS V14.00,2013-03-02 04:07:00,
2013-03-01 20:08:00,41.9,14.2,30.36,ESE,112,1.1,1.1,32,0.00,,,0.00,VWS V14.00,2013-03-02 04:08:00,
2013-03-01 20:09:00,42.4,14.7,30.36,ESE,112,1.1,1.1,32,0.00,,,0.00,VWS V14.00,2013-03-02 04:09:00,
2013-03-01 20:10:00,42.4,14.7,30.36,ESE,112,1.1,1.1,32,0.00,,,0.00,VWS V14.00,2013-03-02 04:10:00,
2013-03-01 20:11:00,42.3,14.5,30.36,ESE,112,1.1,1.1,32,0.00,,,0.00,VWS V14.00,2013-03-02 04:11:00,
2013-03-01 20:12:00,41.5,14.6,30.36,ESE,112,1.1,1.1,33,0.00,,,0.00,VWS V14.00,2013-03-02 04:12:00,
2013-03-01 20:13:00,41.5,14.6,30.36,ESE,112,1.1,1.1,33,0.00,,,0.00,VWS V14.00,2013-03-02 04:13:00,
2013-03-01 20:14:00,41.5,14.6,30.36,ESE,112,1.1,1.1,33,0.00,,,0.00,VWS V14.00,2013-03-02 04:14:00,
2013-03-01 20:15:00,41.5,14.6,30.36,ESE,112,1.1,1.1,33,0.00,,,0.00,VWS V14.00,2013-03-02 04:15:00,
2013-03-01 20:16:00,41.0,14.1,30.36,ESE,112,1.1,1.1,33,0.00,,,0.00,VWS V14.00,2013-03-02 04:16:00,
2013-03-01 20:17:00,41.0,14.1,30.36,ESE,112,1.1,1.1,33,0.00,,,0.00,VWS V14.00,2013-03-02 04:17:00,
2013-03-01 20:18:00,41.2,15.0,30.36,ESE,112,1.1,1.1,34,0.00,,,0.00,VWS V14.00,2013-03-02 04:18:00,
2013-03-01 20:19:00,41.0,14.8,30.36,ESE,112,1.1,1.1,34,0.00,,,0.00,VWS V14.00,2013-03-02 04:19:00,
2013-03-01 20:20:00,41.0,14.8,30.36,ESE,112,1.1,1.1,34,0.00,,,0.00,VWS V14.00,2013-03-02 04:20:00,
2013-03-01 20:21:00,41.0,14.8,30.36,SE,135,0.0,1.1,34,0.00,,,0.00,VWS V14.00,2013-03-02 04:21:00,
2013-03-01 20:22:00,41.0,14.8,30.36,SE,135,0.0,0.0,34,0.00,,,0.00,VWS V14.00,2013-03-02 04:22:00,
2013-03-01 20:23:00,40.8,15.3,30.36,SE,135,0.0,0.0,35,0.00,,,0.00,VWS V14.00,2013-03-02 04:23:00,
2013-03-01 20:24:00,40.8,15.3,30.36,SE,135,0.0,0.0,35,0.00,,,0.00,VWS V14.00,2013-03-02 04:24:00,
2013-03-01 20:25:00,40.6,15.1,30.36,SE,135,0.0,0.0,35,0.00,,,0.00,VWS V14.00,2013-03-02 04:25:00,
2013-03-01 20:26:00,40.6,15.1,30.36,SSE,158,0.9,0.9,35,0.00,,,0.00,VWS V14.00,2013-03-02 04:26:00,
2013-03-01 20:27:00,40.6,15.1,30.36,SSE,158,0.9,0.9,35,0.00,,,0.00,VWS V14.00,2013-03-02 04:27:00,
2013-03-01 20:28:00,40.6,15.1,30.36,SSE,158,0.9,0.9,35,0.00,,,0.00,VWS V14.00,2013-03-02 04:28:00,
2013-03-01 20:29:00,40.6,15.1,30.36,SSE,158,0.9,0.9,35,0.00,,,0.00,VWS V14.00,2013-03-02 04:29:00,
2013-03-01 20:30:00,40.6,15.1,30.36,SSE,158,0.9,0.9,35,0.00,,,0.00,VWS V14.00,2013-03-02 04:30:00,
2013-03-01 20:31:00,40.6,15.1,30.36,SSE,158,0.9,0.9,35,0.00,,,0.00,VWS V14.00,2013-03-02 04:31:00,
2013-03-01 20:32:00,40.5,15.6,30.36,SSE,158,0.9,0.9,36,0.00,,,0.00,VWS V14.00,2013-03-02 04:32:00,
2013-03-01 20:33:00,40.5,15.6,30.36,SSE,158,0.9,0.9,36,0.00,,,0.00,VWS V14.00,2013-03-02 04:33:00,
2013-03-01 20:34:00,40.3,15.5,30.36,SSE,158,0.9,0.9,36,0.00,,,0.00,VWS V14.00,2013-03-02 04:34:00,
2013-03-01 20:35:00,40.3,15.5,30.36,SSE,158,0.9,0.9,36,0.00,,,0.00,VWS V14.00,2013-03-02 04:35:00,
2013-03-01 20:36:00,40.3,15.5,30.36,SSE,158,0.9,0.9,36,0.00,,,0.00,VWS V14.00,2013-03-02 04:36:00,
2013-03-01 20:37:00,40.1,15.3,30.36,SSE,158,0.9,0.9,36,0.00,,,0.00,VWS V14.00,2013-03-02 04:37:00,
2013-03-01 20:38:00,40.1,15.3,30.36,SSE,158,0.9,0.9,36,0.00,,,0.00,VWS V14.00,2013-03-02 04:38:00,
2013-03-01 20:39:00,41.0,16.1,30.36,SSE,158,0.9,0.9,36,0.00,,,0.00,VWS V14.00,2013-03-02 04:39:00,
2013-03-01 20:40:00,41.4,15.8,30.36,SSE,158,0.9,0.9,35,0.00,,,0.00,VWS V14.00,2013-03-02 04:40:00,
2013-03-01 20:41:00,41.4,15.8,30.36,SSE,158,0.9,0.9,35,0.00,,,0.00,VWS V14.00,2013-03-02 04:41:00,
2013-03-01 20:42:00,40.8,15.9,30.36,SSE,158,0.9,0.9,36,0.00,,,0.00,VWS V14.00,2013-03-02 04:42:00,
2013-03-01 20:43:00,40.8,15.9,30.36,SSE,158,0.9,0.9,36,0.00,,,0.00,VWS V14.00,2013-03-02 04:43:00,
2013-03-01 20:44:00,41.5,15.9,30.36,SSE,158,0.9,0.9,35,0.00,,,0.00,VWS V14.00,2013-03-02 04:44:00,
2013-03-01 20:45:00,41.5,15.9,30.36,SSE,158,0.9,0.9,35,0.00,,,0.00,VWS V14.00,2013-03-02 04:45:00,
2013-03-01 20:46:00,41.9,16.3,30.36,SSE,158,0.9,0.9,35,0.00,,,0.00,VWS V14.00,2013-03-02 04:46:00,
2013-03-01 20:47:00,41.9,16.3,30.36,SSE,158,0.9,0.9,35,0.00,,,0.00,VWS V14.00,2013-03-02 04:47:00,
2013-03-01 20:48:00,41.7,16.1,30.36,SSE,158,0.9,0.9,35,0.00,,,0.00,VWS V14.00,2013-03-02 04:48:00,
2013-03-01 20:49:00,41.2,16.3,30.36,SSE,158,0.9,0.9,36,0.00,,,0.00,VWS V14.00,2013-03-02 04:49:00,
2013-03-01 20:50:00,41.2,16.3,30.36,SSE,158,0.9,0.9,36,0.00,,,0.00,VWS V14.00,2013-03-02 04:50:00,
2013-03-01 20:51:00,40.6,15.8,30.36,SSE,158,0.9,0.9,36,0.00,,,0.00,VWS V14.00,2013-03-02 04:51:00,
2013-03-01 20:52:00,40.6,15.8,30.36,SSE,158,0.9,0.9,36,0.00,,,0.00,VWS V14.00,2013-03-02 04:52:00,
2013-03-01 20:53:00,40.5,16.3,30.36,SSE,158,0.9,0.9,37,0.00,,,0.00,VWS V14.00,2013-03-02 04:53:00,
2013-03-01 20:54:00,40.8,15.9,30.36,SSE,158,0.9,0.9,36,0.00,,,0.00,VWS V14.00,2013-03-02 04:54:00,
2013-03-01 20:55:00,40.8,15.9,30.36,SSE,158,0.9,0.9,36,0.00,,,0.00,VWS V14.00,2013-03-02 04:55:00,
2013-03-01 20:56:00,40.8,15.9,30.36,SSE,158,0.9,0.9,36,0.00,,,0.00,VWS V14.00,2013-03-02 04:56:00,
2013-03-01 20:57:00,40.8,15.9,30.36,SSE,158,0.9,0.9,36,0.00,,,0.00,VWS V14.00,2013-03-02 04:57:00,
2013-03-01 20:58:00,40.6,16.4,30.36,SSE,158,0.9,0.9,37,0.00,,,0.00,VWS V14.00,2013-03-02 04:58:00,
2013-03-01 20:59:00,40.6,16.4,30.36,SSE,158,0.9,0.9,37,0.00,,,0.00,VWS V14.00,2013-03-02 04:59:00,
2013-03-01 21:00:00,40.3,16.1,30.36,SSE,158,0.9,0.9,37,0.00,,,0.00,VWS V14.00,2013-03-02 05:00:00,
2013-03-01 21:01:00,40.3,16.1,30.36,SSE,158,0.9,0.9,37,0.00,,,0.00,VWS V14.00,2013-03-02 05:01:00,
2013-03-01 21:02:00,40.8,15.9,30.36,SSE,158,0.9,0.9,36,0.00,,,0.00,VWS V14.00,2013-03-02 05:02:00,
2013-03-01 21:03:00,40.6,16.4,30.36,SSE,158,0.9,0.9,37,0.00,,,0.00,VWS V14.00,2013-03-02 05:03:00,
2013-03-01 21:04:00,40.6,16.4,30.36,SSE,158,0.9,0.9,37,0.00,,,0.00,VWS V14.00,2013-03-02 05:04:00,
2013-03-01 21:05:00,40.8,16.6,30.36,SSE,158,0.9,0.9,37,0.00,,,0.00,VWS V14.00,2013-03-02 05:05:00,
2013-03-01 21:06:00,40.8,16.6,30.36,SSE,158,0.9,0.9,37,0.00,,,0.00,VWS V14.00,2013-03-02 05:06:00,
2013-03-01 21:07:00,40.1,16.5,30.36,SSE,158,0.9,0.9,38,0.00,,,0.00,VWS V14.00,2013-03-02 05:07:00,
2013-03-01 21:08:00,39.7,16.2,30.36,SSE,158,0.9,0.9,38,0.00,,,0.00,VWS V14.00,2013-03-02 05:08:00,
2013-03-01 21:09:00,39.7,16.2,30.36,SSE,158,0.9,0.9,38,0.00,,,0.00,VWS V14.00,2013-03-02 05:09:00,
2013-03-01 21:10:00,39.9,16.4,30.36,SSE,158,0.9,0.9,38,0.00,,,0.00,VWS V14.00,2013-03-02 05:10:00,
2013-03-01 21:11:00,39.9,16.4,30.36,SSE,158,0.9,0.9,38,0.00,,,0.00,VWS V14.00,2013-03-02 05:11:00,
2013-03-01 21:12:00,39.6,16.1,30.36,SSE,158,0.9,0.9,38,0.00,,,0.00,VWS V14.00,2013-03-02 05:12:00,
2013-03-01 21:13:00,39.6,16.1,30.36,SSE,158,0.9,0.9,38,0.00,,,0.00,VWS V14.00,2013-03-02 05:13:00,
2013-03-01 21:14:00,39.4,16.5,30.36,SSE,158,0.9,0.9,39,0.00,,,0.00,VWS V14.00,2013-03-02 05:14:00,
2013-03-01 21:15:00,39.4,16.5,30.36,SSE,158,0.9,0.9,39,0.00,,,0.00,VWS V14.00,2013-03-02 05:15:00,
2013-03-01 21:16:00,39.2,16.3,30.36,SSE,158,0.9,0.9,39,0.00,,,0.00,VWS V14.00,2013-03-02 05:16:00,
2013-03-01 21:17:00,39.4,16.5,30.36,SSE,158,0.9,0.9,39,0.00,,,0.00,VWS V14.00,2013-03-02 05:17:00,
2013-03-01 21:18:00,39.4,16.5,30.36,SSE,158,0.9,0.9,39,0.00,,,0.00,VWS V14.00,2013-03-02 05:18:00,
2013-03-01 21:19:00,39.2,16.3,30.36,SSE,158,0.9,0.9,39,0.00,,,0.00,VWS V14.00,2013-03-02 05:19:00,
2013-03-01 21:20:00,39.2,16.3,30.36,SSE,158,0.9,0.9,39,0.00,,,0.00,VWS V14.00,2013-03-02 05:20:00,
2013-03-01 21:21:00,39.0,16.2,30.36,SSE,158,0.9,0.9,39,0.00,,,0.00,VWS V14.00,2013-03-02 05:21:00,
2013-03-01 21:22:00,39.0,16.2,30.36,SSE,158,0.9,0.9,39,0.00,,,0.00,VWS V14.00,2013-03-02 05:22:00,
2013-03-01 21:23:00,39.0,16.2,30.36,SSE,158,0.9,0.9,39,0.00,,,0.00,VWS V14.00,2013-03-02 05:23:00,
2013-03-01 21:24:00,38.8,16.0,30.36,SSE,158,0.9,0.9,39,0.00,,,0.00,VWS V14.00,2013-03-02 05:24:00,
2013-03-01 21:25:00,38.8,16.0,30.36,SSE,158,0.9,0.9,39,0.00,,,0.00,VWS V14.00,2013-03-02 05:25:00,
2013-03-01 21:26:00,38.7,15.9,30.36,SSE,158,0.9,0.9,39,0.00,,,0.00,VWS V14.00,2013-03-02 05:26:00,
2013-03-01 21:27:00,38.7,15.9,30.36,SSE,158,0.9,0.9,39,0.00,,,0.00,VWS V14.00,2013-03-02 05:27:00,
2013-03-01 21:28:00,38.7,16.4,30.36,SSE,158,0.9,0.9,40,0.00,,,0.00,VWS V14.00,2013-03-02 05:28:00,
2013-03-01 21:29:00,38.7,16.4,30.36,SSE,158,0.9,0.9,40,0.00,,,0.00,VWS V14.00,2013-03-02 05:29:00,
2013-03-01 21:30:00,38.7,16.4,30.36,SSE,158,0.9,0.9,40,0.00,,,0.00,VWS V14.00,2013-03-02 05:30:00,
2013-03-01 21:31:00,38.8,16.6,30.36,SSE,158,0.9,0.9,40,0.00,,,0.00,VWS V14.00,2013-03-02 05:31:00,
2013-03-01 21:32:00,38.8,16.6,30.36,SSE,158,0.9,0.9,40,0.00,,,0.00,VWS V14.00,2013-03-02 05:32:00,
2013-03-01 21:33:00,38.7,16.4,30.36,SSE,158,0.9,0.9,40,0.00,,,0.00,VWS V14.00,2013-03-02 05:33:00,
2013-03-01 21:34:00,38.7,16.4,30.36,SSE,158,0.9,0.9,40,0.00,,,0.00,VWS V14.00,2013-03-02 05:34:00,
2013-03-01 21:35:00,38.7,16.4,30.36,SSE,158,0.9,0.9,40,0.00,,,0.00,VWS V14.00,2013-03-02 05:35:00,
2013-03-01 21:36:00,38.7,16.4,30.36,SSE,158,0.9,0.9,40,0.00,,,0.00,VWS V14.00,2013-03-02 05:36:00,
2013-03-01 21:37:00,38.5,16.3,30.36,SSE,158,0.9,0.9,40,0.00,,,0.00,VWS V14.00,2013-03-02 05:37:00,
2013-03-01 21:38:00,38.8,16.6,30.36,SSE,158,0.9,0.9,40,0.00,,,0.00,VWS V14.00,2013-03-02 05:38:00,
2013-03-01 21:39:00,38.8,16.6,30.36,SSE,158,0.9,0.9,40,0.00,,,0.00,VWS V14.00,2013-03-02 05:39:00,
2013-03-01 21:40:00,39.6,16.7,30.36,SSE,158,0.9,0.9,39,0.00,,,0.00,VWS V14.00,2013-03-02 05:40:00,
2013-03-01 21:45:00,39.2,16.3,30.36,SSE,158,0.9,0.9,39,0.00,,,0.00,VWS V14.00,2013-03-02 05:45:00,
2013-03-01 21:50:00,39.9,17.0,30.39,SSE,158,0.9,0.9,39,0.00,,,0.00,VWS V14.00,2013-03-02 05:50:00,
2013-03-01 21:51:00,39.4,16.5,30.39,SSE,158,0.9,0.9,39,0.00,,,0.00,VWS V14.00,2013-03-02 05:51:00,
2013-03-01 21:52:00,39.4,16.5,30.39,SSE,158,0.9,0.9,39,0.00,,,0.00,VWS V14.00,2013-03-02 05:52:00,
2013-03-01 21:55:00,39.9,17.0,30.39,SSE,158,0.9,0.9,39,0.00,,,0.00,VWS V14.00,2013-03-02 05:55:00,
2013-03-01 22:00:00,40.5,17.5,30.39,SSE,158,0.9,0.9,39,0.00,,,0.00,VWS V14.00,2013-03-02 06:00:00,
2013-03-01 22:05:00,39.6,16.7,30.39,SSE,158,0.9,0.9,39,0.00,,,0.00,VWS V14.00,2013-03-02 06:05:00,
2013-03-01 22:08:00,39.6,16.7,30.39,SSE,158,0.9,0.9,39,0.00,,,0.00,VWS V14.00,2013-03-02 06:08:00,